GFSFLT2_850_thetae_000.txt.gz
Theta_e
325 325 327 330 333 334 336 336 336 335 338 337 337 339 339 339 341 343 346 345 343 345 346 348 350 352 351 350 349 348 351 346
326 326 327 329 331 333 335 342 339 336 337 339 339 337 336 339 342 343 345 346 344 344 345 347 348 350 350 349 349 351 351 345
327 325 326 328 330 333 334 335 337 338 337 336 336 337 336 336 341 341 344 346 346 344 344 347 347 348 351 353 353 349 350 342
325 326 326 328 330 333 335 339 336 336 335 334 335 335 335 335 334 335 342 345 347 346 346 346 348 347 348 351 354 353 344 338
330 326 325 326 328 330 332 334 342 337 336 334 334 334 334 339 339 339 344 346 347 348 348 348 348 349 350 352 353 354 354 355
331 330 327 326 325 327 329 334 335 335 335 334 333 334 334 335 338 341 345 346 348 348 350 350 350 350 351 352 353 355 355 357
330 329 329 328 326 326 327 328 334 334 333 334 335 334 333 332 334 340 346 346 348 349 351 352 351 352 354 354 355 355 357 357
334 331 330 329 328 326 326 327 328 330 332 333 333 331 332 332 332 340 345 346 348 350 352 355 355 355 355 356 355 356 357 358
337 334 332 333 331 329 327 327 328 329 330 331 331 333 334 333 337 340 344 345 347 349 351 354 355 356 356 356 355 356 357 357
338 337 337 331 331 330 328 327 328 329 331 331 332 334 336 338 336 339 344 345 346 347 350 352 352 352 352 347 341 352 352 356
336 336 335 334 335 330 329 328 328 330 332 332 332 335 340 338 338 341 345 347 347 347 349 348 348 345 339 340 341 348 351 351
336 336 337 339 338 336 338 338 330 330 332 332 336 338 335 340 337 338 342 344 345 344 345 345 339 333 333 343 339 337 335 337
335 337 336 338 335 336 341 335 331 335 336 337 340 342 341 339 340 342 344 345 345 344 342 333 333 341 345 345 340 334 334 336
336 339 338 334 336 342 341 338 339 339 339 340 340 341 343 343 344 344 343 341 340 341 339 343 342 341 334 335 333 334 340 340
335 334 335 332 334 336 337 339 339 339 339 339 338 340 341 340 340 340 339 339 340 344 345 343 338 346 341 333 332 335 337 344
337 335 333 332 332 333 334 335 335 336 336 336 337 337 337 339 340 342 344 343 342 343 340 330 330 330 330 332 335 338 341 344
335 333 330 329 329 330 330 332 333 334 334 335 339 341 342 343 343 343 344 344 343 343 345 333 332 333 335 338 342 343 344 346
334 332 330 324 324 325 326 327 328 329 329 330 332 334 339 341 343 345 345 345 346 346 344 343 340 342 344 344 348 350 350 347
331 327 322 322 322 321 321 322 323 324 325 325 326 326 328 330 332 334 330 335 346 346 347 345 346 347 346 345 346 345 344 341

GFSFLT2_850_thetae_003.txt.gz
Theta_e
328 327 327 330 333 334 336 338 339 339 339 339 341 341 340 338 337 337 344 347 346 345 348 349 349 351 354 355 356 355 358 357
328 327 327 327 331 334 337 342 341 339 339 340 340 339 338 339 337 338 340 347 347 345 346 347 349 351 353 355 357 355 357 358
330 328 327 327 329 332 334 336 338 340 340 338 340 340 338 338 336 337 340 345 347 346 346 346 347 348 352 354 356 356 357 357
331 330 329 328 328 329 336 340 336 339 338 338 337 337 337 337 336 337 339 343 346 347 345 346 346 346 348 350 353 357 358 356
333 331 329 328 328 329 330 335 342 339 337 337 336 336 336 336 335 335 339 341 345 346 346 346 346 346 345 349 349 353 357 358
334 333 329 328 328 327 329 333 335 335 337 338 337 336 336 335 335 337 338 344 344 346 346 346 346 347 346 346 347 351 355 356
331 332 331 329 327 327 327 330 332 334 335 337 338 337 336 334 333 334 335 342 347 348 348 349 348 348 348 347 348 351 354 356
332 331 330 330 330 327 327 327 329 330 332 334 335 335 335 334 333 333 334 335 346 349 350 353 351 352 351 350 351 354 356 357
338 335 334 333 331 330 330 329 328 328 330 331 334 336 337 334 334 333 334 334 341 348 351 353 353 354 354 355 353 356 356 359
336 337 338 334 335 333 331 331 330 329 329 330 334 333 333 332 333 333 333 333 338 346 351 354 354 354 354 357 356 358 358 360
337 338 339 337 339 339 341 338 333 332 330 329 330 330 333 330 331 333 333 336 340 348 351 355 355 355 357 358 359 359 361 359
338 338 339 335 339 338 337 338 333 333 332 329 330 334 335 332 336 340 339 337 343 349 351 356 356 358 357 357 358 357 359 359
334 336 335 340 338 337 339 339 344 341 340 338 331 333 342 343 342 341 339 346 351 350 354 354 353 354 354 354 355 356 355 356
332 334 335 337 337 339 343 339 341 341 340 341 330 340 344 344 344 343 344 347 348 350 351 351 350 350 351 350 349 351 352 356
331 334 340 337 338 337 338 339 340 341 340 341 343 344 345 346 348 348 347 348 348 348 346 346 348 349 351 353 353 355 356 351
335 338 338 336 335 335 335 337 338 340 341 342 343 344 343 342 342 341 342 344 346 347 350 353 351 352 358 358 357 357 354 346
339 337 334 332 332 333 334 335 335 337 339 341 341 342 343 344 344 344 344 343 345 348 350 352 354 356 355 356 356 350 350 353
337 336 333 329 328 329 329 329 329 331 332 334 338 340 343 345 345 345 345 345 346 346 348 350 352 353 352 353 355 353 354 352
333 329 324 323 323 322 322 322 323 324 326 327 328 328 329 331 334 337 342 343 344 344 346 348 350 352 351 354 351 348 348 346

GFSFLT2_850_thetae_006.txt.gz
Theta_e
329 329 328 328 329 331 334 335 338 339 339 339 341 345 343 340 341 342 347 348 348 348 349 351 352 352 354 358 358 358 356 356
330 329 329 328 330 329 332 338 341 339 341 344 344 346 345 344 342 339 339 348 349 347 350 351 352 352 354 356 358 360 358 356
331 330 329 327 328 329 331 334 339 342 341 343 347 348 347 344 340 338 338 346 347 348 348 351 353 353 354 356 359 362 361 358
330 331 330 329 329 328 330 337 335 337 339 338 343 344 341 341 338 338 337 339 344 348 348 349 352 353 354 356 358 361 361 359
330 331 332 330 328 328 328 331 336 337 338 338 340 341 342 340 338 339 338 342 343 347 348 348 349 350 353 355 358 361 362 358
333 333 332 333 330 330 329 329 332 334 338 338 341 341 341 340 338 337 336 344 344 345 349 347 348 349 351 354 356 358 361 359
330 330 332 332 330 330 330 331 332 332 334 340 340 342 340 337 336 336 337 343 343 345 346 348 348 349 349 350 352 354 357 360
333 332 331 333 332 330 329 330 331 331 332 334 337 336 341 337 337 338 336 335 345 342 345 349 349 349 349 348 350 350 352 357
335 332 332 333 333 332 331 329 329 330 332 334 334 337 340 340 338 338 336 335 336 347 346 348 352 349 349 348 349 349 350 355
336 336 336 333 332 331 331 331 330 331 332 333 334 332 331 331 333 334 337 335 333 333 347 349 354 354 351 351 349 349 350 354
338 339 336 335 334 335 334 334 334 333 335 332 331 330 331 330 330 331 330 337 335 333 334 347 352 354 354 354 350 352 351 358
337 336 341 339 339 338 338 339 342 342 342 340 337 334 333 330 332 332 330 332 335 337 337 347 352 354 355 357 356 353 355 359
335 335 334 338 338 336 340 341 342 342 342 341 342 341 340 341 340 342 333 332 335 340 349 350 353 356 356 358 361 358 361 364
336 340 341 337 337 340 342 340 339 339 340 340 340 339 338 342 343 338 344 341 345 352 352 356 358 359 361 361 363 363 364 364
330 333 335 338 341 340 339 339 341 342 341 338 338 340 344 346 347 347 347 347 352 357 358 358 359 360 360 360 361 362 361 361
331 333 339 338 337 337 338 342 342 343 344 346 345 344 345 346 347 349 350 351 353 354 355 356 356 357 357 356 356 356 357 354
333 343 339 337 337 337 337 338 338 337 337 338 344 345 348 347 348 349 349 350 353 354 357 356 358 358 358 358 357 352 350 352
342 338 337 335 334 332 332 332 332 332 332 331 333 335 339 344 346 348 349 350 351 353 355 354 357 356 356 354 353 350 351 349
327 331 327 326 325 325 325 325 326 327 329 329 329 330 331 334 339 345 346 347 349 351 353 353 354 354 354 352 351 342 345 349

GFSFLT2_850_thetae_012.txt.gz
Theta_e
322 323 323 323 318 320 319 323 325 326 328 327 329 336 341 342 341 342 341 340 342 344 344 346 346 346 347 348 348 348 349 349
323 322 322 321 320 321 315 322 324 324 327 330 329 331 335 339 341 342 341 341 341 342 344 346 346 346 347 347 348 348 349 349
321 321 323 323 321 318 318 319 322 322 325 324 327 328 332 340 343 343 343 342 342 342 343 344 346 347 347 347 348 349 349 349
323 321 323 324 323 318 322 320 320 323 325 328 326 327 332 337 341 344 344 343 344 344 343 345 346 348 347 347 348 349 349 350
321 320 320 322 323 322 315 316 321 323 323 323 323 324 335 338 339 341 342 341 341 343 344 344 346 348 348 347 347 348 350 351
324 323 322 322 323 322 321 323 322 322 323 324 324 329 328 336 340 341 341 340 340 343 344 345 346 348 348 348 347 348 349 352
321 323 324 324 324 324 322 322 322 323 319 320 320 321 324 328 337 339 341 338 339 343 345 346 347 348 348 348 348 348 349 350
322 324 325 326 326 326 325 324 323 320 320 319 321 324 327 330 333 338 337 339 338 343 345 346 347 347 348 349 348 349 349 349
319 322 325 326 327 326 325 324 324 322 321 320 321 323 324 328 330 333 339 338 342 345 345 346 347 347 349 349 349 351 350 350
319 321 327 327 327 326 325 326 325 323 322 322 323 326 326 328 330 332 335 338 337 346 346 347 348 347 347 349 350 351 351 350
321 323 324 330 329 326 324 326 334 326 329 325 325 326 329 330 331 330 332 335 339 342 346 347 347 347 348 350 351 352 352 351
322 325 328 326 332 332 329 343 339 339 337 335 329 326 326 337 335 329 328 330 334 335 333 335 346 346 346 349 350 351 351 350
324 329 326 334 334 333 334 332 338 338 338 336 336 333 338 337 337 337 332 329 329 332 334 332 334 347 346 347 348 346 346 348
327 333 338 325 333 333 332 344 346 347 344 347 347 343 345 341 341 340 337 337 336 332 331 329 332 332 340 346 344 345 348 352
324 330 323 326 335 341 342 342 344 345 345 346 347 348 347 348 349 349 345 341 338 336 336 332 332 333 335 339 344 349 350 352
327 326 328 337 340 336 340 341 342 342 343 344 346 348 350 350 349 350 354 360 361 360 357 341 337 336 344 339 343 350 350 351
326 326 327 330 334 334 333 335 336 339 341 342 343 343 346 348 350 352 353 353 352 349 356 360 361 345 349 351 352 352 351 352
332 326 327 326 332 330 330 331 328 328 331 336 339 339 341 342 340 339 343 344 345 338 337 333 345 353 358 357 354 353 357 358
327 325 325 325 325 327 328 329 329 327 326 328 334 334 334 335 331 330 331 332 332 332 330 333 336 334 357 361 359 357 357 360

GFSFLT2_850_thetae_018.txt.gz
Theta_e
320 319 321 317 320 317 316 317 317 319 321 323 325 325 331 335 336 337 340 342 345 346 347 346 345 344 343 345 345 346 346 346
322 320 319 317 316 319 311 320 320 319 320 324 324 327 326 332 336 337 337 338 341 342 344 345 344 344 344 343 344 344 345 346
317 319 322 317 317 315 316 314 318 319 321 318 323 324 325 326 333 335 338 338 338 340 341 342 343 344 343 344 344 345 346 346
318 317 320 322 321 315 319 317 313 315 320 320 320 323 324 325 327 330 333 337 339 339 340 341 341 342 343 343 344 344 344 344
315 317 317 317 319 317 317 314 319 319 321 322 319 321 324 324 327 330 332 334 338 339 339 340 341 341 342 343 343 343 345 345
317 316 316 318 318 316 318 320 321 321 321 321 320 320 321 323 326 327 329 329 329 332 337 339 340 341 342 342 343 343 345 345
315 315 316 317 318 319 316 319 320 321 321 320 319 318 320 326 325 325 326 328 328 333 338 339 339 340 341 341 342 343 343 344
314 316 316 317 319 320 319 318 318 319 318 317 319 321 321 323 324 324 326 327 327 334 340 340 340 339 341 341 342 342 343 343
315 315 315 318 318 319 319 318 319 320 320 319 318 317 318 321 324 325 326 326 326 331 337 341 341 341 341 341 342 342 343 343
314 315 319 317 317 322 320 320 319 320 319 319 321 323 324 325 325 326 326 326 326 326 328 338 342 342 342 341 342 343 343 345
315 315 316 318 325 330 329 328 321 320 320 318 321 321 321 323 323 324 326 326 326 328 328 331 336 341 342 341 342 343 343 345
311 317 320 321 327 329 328 331 334 328 320 320 318 319 321 327 324 324 325 325 326 327 329 332 335 336 335 339 340 342 342 342
313 317 317 321 328 333 332 333 336 336 338 320 320 323 326 326 327 329 328 327 327 330 333 337 339 340 340 341 342 341 343 346
313 317 319 323 331 339 334 334 334 337 339 338 326 327 334 340 343 343 342 342 338 331 331 332 337 343 343 344 345 346 347 347
316 317 316 326 326 331 331 332 333 333 340 341 343 343 345 347 348 348 347 347 346 344 342 344 344 334 340 346 348 349 349 349
317 318 321 326 330 329 330 330 333 336 340 342 341 343 343 343 345 345 346 346 344 344 344 342 340 339 341 345 349 347 344 344
315 317 322 328 327 328 329 333 335 336 337 336 334 335 336 336 335 335 336 338 338 338 338 338 337 338 339 339 339 339 338 339
315 317 322 325 325 327 329 332 332 332 332 333 335 336 336 335 335 335 335 335 336 336 335 334 334 333 332 332 332 332 333 333
318 320 321 325 326 330 330 330 331 333 333 334 336 336 336 335 335 335 336 337 335 335 334 334 333 334 337 336 335 334 334 335

GFSFLT2_850_thetae_021.txt.gz
Theta_e
323 323 324 324 326 324 323 322 325 327 328 328 329 331 333 336 337 341 345 347 349 349 349 347 346 345 343 343 345 346 346 345
324 324 324 323 324 323 324 324 325 326 328 329 332 332 332 335 336 337 338 342 345 348 348 347 346 345 345 343 340 340 341 345
325 324 325 322 324 324 324 324 324 324 325 329 332 336 336 334 334 335 336 338 340 344 347 346 347 347 346 345 343 342 341 341
324 324 325 325 325 325 325 326 324 325 325 326 329 332 334 333 333 334 338 337 334 340 343 345 345 345 345 344 345 344 343 342
325 324 322 325 326 325 325 326 327 324 325 326 327 327 328 329 329 329 330 333 333 339 340 338 339 342 344 343 342 342 344 344
328 325 322 324 322 325 325 327 326 327 326 326 327 328 328 328 329 328 326 327 332 333 331 335 338 339 340 342 343 343 344 344
318 318 319 320 320 321 323 325 328 326 326 326 327 329 328 328 329 326 326 326 327 328 328 329 333 338 339 339 342 343 343 343
318 317 318 319 320 320 321 322 322 323 324 325 324 325 327 326 326 327 326 325 325 326 327 329 335 336 337 339 340 341 342 341
318 318 319 320 320 321 321 322 322 324 324 324 325 326 326 326 327 327 326 326 326 326 326 327 328 328 339 339 340 341 341 342
315 317 320 321 321 324 325 324 323 323 324 324 325 326 326 325 326 326 325 325 325 326 326 326 327 333 337 340 340 340 341 342
313 317 318 318 320 330 333 327 332 335 327 325 324 325 328 326 324 323 324 325 325 325 325 325 325 326 336 340 340 340 341 341
313 312 316 320 322 328 333 329 337 339 341 338 325 327 329 326 325 324 324 324 324 325 326 327 327 329 333 339 340 341 341 342
313 314 315 317 324 335 337 330 337 338 339 341 343 328 328 329 325 325 325 325 325 325 326 327 328 332 334 335 336 338 340 342
312 313 313 315 321 325 336 335 337 338 337 337 340 342 332 337 330 329 330 331 327 326 327 329 335 338 340 340 340 341 342 343
313 312 313 315 320 327 333 334 335 336 336 337 340 342 340 345 343 345 344 339 336 334 332 332 333 336 341 343 345 345 346 346
314 312 314 315 318 323 329 331 333 335 334 337 342 341 343 342 341 341 340 341 341 340 342 344 343 342 342 343 345 345 345 345
315 315 315 314 316 322 328 330 334 334 333 335 338 338 338 337 336 336 336 335 336 337 337 336 336 336 335 335 335 335 335 335
314 315 316 317 320 324 326 331 332 333 334 334 335 335 336 338 341 339 338 337 337 338 336 336 335 335 334 334 334 334 333 333
315 313 314 317 318 321 326 332 331 332 335 336 336 338 340 343 341 340 340 340 339 339 339 339 338 338 338 338 338 336 335 335

GFSFLT2_850_thetae_024.txt.gz
Theta_e
326 326 327 327 329 326 327 328 329 330 331 332 333 334 334 334 335 337 346 349 350 350 351 353 353 352 351 346 341 343 342 341
325 325 326 327 327 326 326 328 329 328 330 332 333 334 335 335 335 336 341 347 348 349 350 352 354 354 354 348 337 337 341 343
327 326 326 327 328 327 327 327 328 329 329 331 332 334 334 335 335 336 339 342 345 347 348 350 352 354 355 355 352 343 339 339
328 327 327 327 327 328 328 330 328 329 329 329 330 331 334 333 334 335 336 338 340 342 345 348 350 352 353 355 355 349 343 340
329 329 328 328 327 328 328 329 331 329 327 330 330 331 333 334 334 334 336 339 341 340 341 345 348 351 351 353 354 354 355 351
331 330 328 329 328 328 328 330 329 330 330 329 329 330 331 330 330 331 334 335 337 338 339 342 345 348 350 350 351 353 353 356
329 325 325 328 328 328 329 329 330 330 330 330 329 330 330 329 329 329 331 333 335 339 341 344 344 346 347 351 350 350 351 354
326 324 323 325 326 326 328 329 329 329 330 330 329 328 329 328 328 328 328 328 329 331 338 338 338 339 347 348 348 350 350 350
326 324 324 326 325 325 326 327 327 329 329 329 329 329 328 327 327 327 328 329 330 332 334 337 338 335 334 344 350 349 348 351
324 324 326 326 326 326 326 326 326 327 327 328 328 327 327 327 328 328 328 329 330 330 330 331 336 335 344 347 340 343 347 345
320 322 324 324 323 324 326 327 327 328 329 328 327 326 327 326 327 329 329 330 330 330 331 332 334 335 339 347 346 349 343 341
317 319 323 323 323 326 326 330 329 333 334 336 338 336 331 327 327 328 329 330 330 330 332 331 326 330 340 344 347 339 343 345
316 317 319 320 324 330 330 340 337 336 338 340 343 341 341 341 338 336 335 334 334 333 330 328 329 327 335 344 339 344 351 352
314 315 316 316 318 324 331 333 333 334 337 339 341 343 343 343 344 339 337 339 342 335 335 342 332 333 333 333 342 352 353 354
315 315 315 315 317 318 319 322 329 328 330 334 337 341 344 346 344 343 344 346 347 344 349 350 344 351 348 345 347 352 351 352
313 313 315 314 314 316 318 320 322 326 327 332 335 339 344 346 346 347 346 346 347 350 350 351 355 357 358 348 346 349 350 353
315 315 313 313 314 315 317 321 325 326 330 334 335 339 344 346 345 344 342 343 346 347 347 347 347 345 345 345 346 356 356 357
315 313 313 314 314 318 319 321 323 326 329 334 335 339 339 341 342 343 345 346 347 347 345 344 343 338 335 334 333 333 334 341
314 313 314 315 315 315 317 318 320 325 332 336 335 338 337 338 342 344 342 342 343 342 346 345 340 340 338 341 337 336 341 338

GFSFLT2_850_thetae_027.txt.gz
Theta_e
329 328 329 329 330 329 329 330 330 330 331 333 335 336 337 337 338 339 342 346 349 351 352 351 348 349 351 353 353 348 347 344
329 329 329 330 329 328 329 332 332 332 333 333 335 336 337 338 337 337 339 345 348 350 352 353 352 350 351 353 353 342 344 338
331 329 329 329 331 329 329 329 331 334 333 334 336 336 336 337 336 337 337 343 347 350 350 352 353 353 352 354 355 355 343 341
331 329 329 330 330 331 330 333 330 332 333 333 333 333 336 336 335 335 337 340 346 348 349 350 352 354 355 355 356 355 351 344
335 331 330 329 329 330 331 331 333 331 332 333 332 333 334 335 335 336 337 339 342 346 347 348 349 352 354 356 356 357 358 356
336 334 331 330 330 329 331 333 332 332 332 332 332 334 335 335 335 336 337 340 341 341 341 345 347 350 353 354 356 357 357 358
332 333 332 330 329 330 330 331 332 332 333 333 332 334 333 333 333 333 336 337 337 339 341 342 345 349 351 353 354 355 356 357
332 331 330 330 332 330 330 330 331 331 332 333 332 331 332 331 331 331 331 332 334 335 337 343 344 347 350 353 353 352 355 355
332 331 331 331 331 331 331 331 331 332 332 333 333 332 332 331 331 330 330 330 331 331 332 337 341 344 346 350 352 352 352 356
329 331 333 331 330 330 330 331 331 331 332 332 332 331 330 330 330 330 330 330 330 331 331 333 334 335 341 345 349 352 354 353
327 330 330 329 329 330 329 330 329 330 330 330 329 329 329 329 329 329 330 330 331 331 331 332 333 334 337 345 348 347 342 351
324 327 332 329 327 326 328 331 330 329 330 331 331 333 336 341 341 338 332 333 333 331 332 333 334 335 335 338 344 349 343 346
320 323 325 327 329 327 330 343 339 332 333 334 338 341 343 343 344 343 343 343 340 340 339 336 337 337 338 338 342 343 354 355
318 320 323 322 323 329 330 329 330 334 333 335 337 339 339 341 344 346 345 343 338 340 344 341 339 342 345 342 342 348 351 355
317 319 320 319 319 320 320 322 325 327 329 330 331 335 336 339 346 348 346 347 346 347 345 347 353 354 352 349 351 353 355 356
315 316 317 316 317 317 317 318 320 321 323 328 330 335 337 340 348 348 348 348 347 350 352 355 360 359 360 363 359 358 359 359
314 315 315 314 315 315 316 317 318 322 326 327 328 333 338 341 349 348 347 346 350 352 354 354 354 354 354 356 361 361 362 362
315 315 315 315 314 314 314 316 320 322 322 324 327 332 338 339 344 348 349 349 352 352 350 350 351 352 352 352 353 355 360 361
313 312 313 314 314 315 314 317 318 319 319 320 325 334 338 341 342 342 343 345 348 350 350 347 343 344 349 349 350 351 352 347

GFSFLT2_850_thetae_030.txt.gz
Theta_e
330 329 330 329 329 329 329 329 329 329 330 332 335 337 338 338 340 341 343 345 350 352 353 351 349 350 351 354 352 351 348 349
330 330 329 330 330 329 330 332 333 331 335 333 335 337 338 340 338 340 341 343 349 352 353 352 349 350 351 353 352 345 345 343
331 330 330 330 331 329 329 330 331 334 332 337 338 338 340 339 338 339 342 344 347 352 353 353 351 350 351 352 354 353 347 338
333 331 330 329 331 332 332 335 332 334 334 335 338 338 339 338 337 338 339 345 346 349 353 354 353 351 351 353 355 354 350 348
333 333 332 331 330 331 331 331 336 333 332 334 335 338 338 338 339 338 339 340 345 349 351 354 354 353 353 353 354 358 360 358
335 335 334 333 330 331 331 333 332 332 334 334 334 334 338 338 337 337 340 338 345 348 350 352 354 355 355 354 355 357 360 361
331 333 333 331 330 331 332 334 334 333 333 336 337 337 338 337 337 338 340 342 344 347 350 350 351 354 355 355 356 356 357 360
333 333 333 333 331 330 330 330 332 332 333 335 337 335 337 336 334 334 335 339 340 340 342 344 351 351 353 355 357 357 357 357
333 333 333 335 333 332 331 331 331 334 335 336 337 337 336 333 333 332 333 333 333 336 337 339 341 352 353 352 354 356 357 357
330 332 336 333 333 332 332 331 332 333 335 338 338 335 333 332 332 332 332 331 331 331 333 332 335 343 348 353 352 351 355 356
330 332 333 333 333 332 332 333 333 333 334 334 332 332 332 331 331 331 331 332 331 332 332 332 335 339 341 340 346 349 347 352
326 330 333 332 331 331 331 332 340 334 332 332 331 331 344 346 345 345 345 345 343 340 338 333 335 334 335 343 346 344 343 342
322 326 330 329 329 329 333 340 336 337 335 334 340 344 343 341 343 346 346 345 344 342 342 340 336 336 337 336 340 344 343 347
320 324 327 323 326 332 333 327 328 331 332 334 334 336 338 339 339 344 347 346 344 342 338 341 343 335 337 338 337 342 346 348
319 321 326 320 321 321 322 323 323 325 325 327 331 333 336 338 340 348 349 348 351 349 347 347 347 348 347 349 348 343 352 350
317 319 319 318 318 318 319 319 319 320 322 328 330 330 332 338 341 346 351 350 348 349 351 358 361 361 358 359 357 353 353 357
316 316 316 315 316 316 316 317 317 318 320 325 326 327 330 334 339 342 348 353 353 354 356 358 358 362 363 363 361 362 359 360
315 315 317 318 316 316 316 316 317 317 319 322 323 323 323 332 338 340 343 347 352 353 353 353 354 354 354 351 357 365 363 364
313 313 314 315 314 315 316 317 317 317 318 320 320 320 321 328 337 339 342 345 346 351 352 350 349 350 352 353 354 356 356 359

GFSFLT2_850_thetae_033.txt.gz
Theta_e
331 331 328 325 325 323 323 326 324 324 324 325 327 329 330 337 341 346 349 351 350 349 349 348 349 349 351 351 351 350 350 349
331 331 328 326 324 323 323 325 326 326 326 326 325 327 329 331 336 343 350 348 351 350 349 348 348 348 350 351 350 350 350 349
328 331 331 325 326 324 323 323 324 329 328 328 326 327 330 330 335 339 345 351 352 351 350 350 349 348 349 351 351 351 349 348
324 328 329 327 326 325 325 324 324 324 327 330 330 329 330 331 335 339 342 350 353 352 352 351 350 350 349 349 350 349 348 348
323 323 325 327 326 326 324 325 326 325 327 332 332 329 333 332 334 336 342 350 352 354 353 352 351 350 350 349 348 348 349 349
326 325 326 328 328 326 326 327 327 327 328 332 333 335 335 335 338 335 342 348 351 353 354 353 352 351 350 350 349 349 349 348
328 328 329 330 328 328 327 326 328 326 331 334 336 336 337 339 339 339 339 346 350 352 354 354 353 352 351 351 350 350 350 349
331 330 329 331 329 329 328 328 328 327 327 331 335 336 335 335 336 338 342 346 349 350 353 354 353 353 353 352 352 352 352 352
330 331 333 334 332 329 329 328 328 329 328 334 335 333 332 334 332 333 332 333 338 342 351 354 355 354 354 353 353 353 353 353
327 330 335 331 331 333 329 330 328 327 334 332 335 339 337 332 332 332 332 333 332 332 334 338 341 354 353 354 354 355 355 355
327 330 332 332 330 329 331 335 335 339 335 335 342 344 345 346 345 344 342 338 335 335 336 333 333 335 355 354 354 355 356 357
322 331 336 324 325 328 330 338 332 336 338 334 342 346 343 343 346 346 344 343 338 336 339 340 341 338 343 349 353 355 355 356
320 325 329 323 325 329 337 335 328 327 332 336 339 341 339 341 346 348 347 346 342 339 340 341 341 336 342 345 345 344 348 349
320 325 329 320 322 329 328 322 323 323 326 332 333 336 339 341 344 351 351 349 350 347 345 340 339 340 336 337 343 346 346 345
318 322 318 319 319 319 319 320 319 320 321 328 327 328 332 338 339 342 349 349 349 349 349 353 348 346 342 337 340 345 341 343
316 316 316 316 318 317 317 316 317 317 319 324 325 324 323 335 337 337 343 349 349 351 358 359 358 355 349 344 338 342 345 344
312 316 315 315 316 316 316 318 317 317 317 319 322 322 321 322 335 330 335 336 342 350 354 355 356 359 361 359 357 359 356 355
311 310 313 313 313 314 316 316 317 319 318 319 320 320 320 320 326 333 330 333 332 339 349 353 352 349 349 351 357 361 361 361
308 309 309 310 310 313 316 316 316 318 318 319 318 318 319 323 323 333 330 335 343 344 345 349 350 348 348 349 348 358 364 363

GFSFLT2_850_thetae_036.txt.gz
Theta_e
326 329 332 327 331 321 319 319 320 323 321 322 323 323 334 344 346 347 347 346 345 347 348 348 348 347 348 348 348 348 348 348
324 328 329 329 323 324 316 322 323 322 321 324 323 323 322 341 345 348 348 346 346 347 348 348 348 347 348 348 348 348 348 348
322 327 328 326 326 322 321 317 321 322 325 322 322 321 323 336 343 347 347 347 344 346 348 348 348 348 348 348 348 349 348 348
321 321 324 328 323 321 322 320 318 320 325 326 324 324 323 324 344 345 345 346 346 347 347 348 348 349 348 348 348 348 346 347
321 318 320 321 327 322 317 317 320 323 324 324 324 325 327 326 330 343 344 345 347 348 348 348 348 349 349 348 348 348 348 348
320 321 321 322 323 323 323 323 321 323 324 325 325 327 324 326 328 333 344 348 349 349 348 347 348 348 348 349 348 348 349 348
314 317 321 323 326 327 323 323 324 324 325 323 324 330 328 329 331 337 346 348 348 349 349 349 349 349 349 349 349 349 349 348
314 324 326 327 328 328 324 325 323 321 323 322 328 332 332 336 334 339 346 349 350 350 350 350 350 350 350 350 350 350 350 349
317 323 329 331 327 328 325 324 325 324 323 330 332 339 338 329 336 341 346 350 352 351 351 350 350 350 350 350 350 350 350 350
317 322 332 325 323 326 333 330 328 334 333 337 344 344 345 341 338 338 340 346 349 351 352 352 352 351 350 351 351 351 351 351
319 324 328 325 322 323 326 329 324 328 339 343 342 343 344 348 347 344 340 340 342 348 351 353 353 353 352 351 351 351 351 351
314 326 331 323 321 326 327 329 323 328 337 339 336 345 340 348 349 347 344 342 340 340 338 337 344 350 353 354 353 352 352 352
319 327 324 320 319 323 329 328 321 323 326 330 338 339 340 348 350 350 349 347 342 339 340 341 340 339 344 353 354 354 353 353
321 324 327 319 319 319 318 317 317 321 325 324 323 333 337 338 344 349 350 350 348 341 340 339 341 342 338 350 356 356 355 352
316 319 316 317 317 316 316 317 317 317 322 322 321 321 332 334 332 340 345 353 358 358 356 352 347 346 344 340 343 345 349 352
313 314 312 316 316 316 313 315 318 319 317 320 320 321 319 322 333 331 332 337 350 354 355 356 358 359 356 353 348 342 338 340
309 309 311 313 311 312 312 314 317 318 320 319 319 319 319 323 329 330 329 332 337 349 350 352 352 352 351 353 357 359 355 345
309 307 306 308 309 309 310 312 316 317 318 318 318 320 326 329 332 330 328 330 338 339 344 348 349 347 344 343 344 347 358 359
308 308 308 310 311 310 309 311 315 317 318 318 318 321 320 325 328 328 326 326 334 342 343 343 344 345 343 345 345 343 353 357

GFSFLT2_850_thetae_039.txt.gz
Theta_e
322 323 328 328 330 325 322 317 323 329 320 320 323 334 342 344 344 342 340 341 346 347 347 347 347 348 348 348 347 347 345 344
319 322 325 329 325 328 319 326 326 321 321 325 323 325 331 342 343 343 342 342 344 347 347 347 347 347 347 347 346 346 345 345
319 320 322 325 327 328 327 319 327 320 325 319 321 321 323 336 341 341 342 343 344 346 347 347 346 347 347 347 347 346 346 346
321 318 317 324 324 319 331 326 316 318 324 322 320 320 322 329 337 341 343 344 345 345 346 347 347 347 347 347 347 347 347 347
319 318 319 320 326 321 321 316 320 329 328 319 321 323 320 322 331 337 343 345 345 345 345 346 347 347 347 348 348 347 347 347
316 317 314 317 319 323 320 319 322 322 326 324 321 321 321 324 326 329 340 345 346 346 344 346 347 347 347 348 348 348 348 348
310 310 311 313 315 318 319 321 322 321 319 321 320 321 326 331 333 327 336 343 346 346 344 345 346 347 347 348 348 348 348 348
310 312 312 315 320 324 324 321 320 320 320 320 327 338 340 332 327 331 339 342 344 345 345 346 346 347 347 347 347 347 348 348
311 316 322 325 323 326 326 325 325 321 325 326 340 342 342 344 330 330 339 342 343 345 346 346 346 347 346 347 347 348 348 348
309 316 331 321 320 322 327 325 325 328 332 337 342 345 345 345 344 336 337 340 342 345 347 347 347 347 347 347 348 348 349 349
312 320 325 323 321 321 322 325 322 326 332 342 345 345 346 345 347 341 343 345 346 346 348 348 348 348 348 348 348 348 349 349
309 327 330 322 320 318 322 325 319 324 324 337 343 348 343 343 350 347 343 347 349 349 349 349 349 349 349 349 349 349 349 349
314 327 324 319 318 318 322 321 318 320 322 322 331 336 336 341 353 355 348 343 346 350 351 351 351 351 350 350 350 349 349 350
323 325 327 317 318 318 315 316 316 318 321 320 319 327 333 335 346 355 353 345 343 342 341 343 352 353 353 352 353 352 352 351
316 318 315 317 317 313 312 312 313 318 319 319 319 324 332 333 338 343 353 356 355 351 350 349 349 351 352 355 355 354 355 355
311 310 310 314 315 314 312 312 312 315 317 319 327 327 332 330 331 338 343 349 353 354 354 354 354 351 349 349 348 348 348 351
310 308 311 312 310 310 315 313 314 315 316 321 326 329 329 328 327 325 333 341 345 349 351 350 350 351 352 352 349 345 343 343
310 308 308 308 309 310 312 312 313 313 315 317 318 319 321 324 325 324 328 332 340 343 344 345 346 345 342 342 344 347 347 345
309 310 310 311 311 310 311 311 312 314 314 317 317 317 318 318 318 319 319 320 327 338 342 343 342 342 342 343 343 340 338 343

GFSFLT2_850_thetae_042.txt.gz
Theta_e
316 317 321 323 325 322 323 318 323 326 323 323 325 330 340 344 346 347 348 348 348 348 348 347 347 347 346 343 342 343 343 343
315 318 319 323 323 326 321 331 324 325 320 331 323 325 330 337 342 345 346 346 346 347 347 347 348 347 347 348 346 345 345 344
314 318 320 321 327 326 325 321 329 321 322 322 323 326 326 331 341 342 344 344 344 344 346 346 347 347 347 348 348 347 346 346
315 316 317 316 321 324 330 326 318 320 328 321 321 321 323 325 335 339 341 343 342 342 343 345 346 347 347 347 347 347 347 347
315 315 313 317 320 321 318 326 328 332 328 321 319 319 321 322 325 331 336 341 341 341 342 344 345 346 346 346 347 347 347 347
314 315 312 312 313 319 319 326 329 329 328 326 324 321 321 320 323 325 334 339 341 341 342 344 345 346 346 346 346 346 347 347
310 311 311 311 312 313 315 318 326 324 324 324 323 322 319 323 326 325 326 330 338 341 343 344 345 346 346 346 346 346 347 347
310 309 310 311 313 314 315 318 318 319 319 325 320 326 340 341 342 337 329 329 330 337 342 344 345 345 345 346 346 346 347 347
309 311 313 315 317 323 325 325 324 321 325 329 332 343 341 342 344 344 339 329 328 335 341 343 344 344 344 345 346 346 347 347
310 310 325 322 320 324 323 321 323 325 326 336 336 344 343 340 341 344 341 333 329 337 338 342 343 345 345 345 346 346 346 346
310 313 324 323 320 320 322 322 318 321 324 327 338 342 344 342 340 343 348 335 339 341 340 342 343 344 345 345 346 346 346 346
312 317 333 321 318 318 319 324 318 318 322 322 337 344 342 337 341 346 346 341 339 340 342 344 344 345 345 345 345 346 346 346
314 318 324 317 318 316 325 321 315 318 319 321 326 326 330 338 344 346 350 344 345 343 344 345 345 346 346 346 346 346 346 347
319 327 329 317 315 318 314 313 313 314 317 320 328 330 333 338 346 347 348 347 347 348 347 347 347 347 347 347 347 347 348 348
313 317 311 315 312 312 312 312 312 312 316 323 327 328 326 328 337 345 350 350 352 349 348 349 349 349 349 349 349 349 349 349
312 310 311 313 311 310 311 312 313 314 316 320 323 323 322 321 325 333 341 348 349 349 352 353 351 350 351 352 351 351 352 352
310 309 310 313 310 310 311 312 315 315 315 316 319 318 317 317 317 318 327 338 345 347 347 346 348 353 354 354 353 351 350 352
311 309 309 309 311 312 311 311 313 315 315 316 316 317 317 316 315 315 315 320 337 342 343 343 344 343 344 346 349 349 348 346
309 309 311 312 312 311 311 312 312 313 315 313 315 316 316 316 314 313 313 313 315 339 343 342 342 342 342 340 338 337 339 344

GFSFLT2_850_thetae_045.txt.gz
Theta_e
315 316 319 323 326 324 324 327 327 324 326 330 332 333 334 340 346 348 349 349 349 348 347 346 344 342 343 344 343 342 341 341
315 315 319 321 323 327 326 327 327 327 327 327 333 333 335 336 342 346 348 349 349 349 348 346 343 343 343 343 342 341 341 341
310 315 321 323 323 326 327 328 328 326 328 328 329 336 335 335 336 342 346 348 349 349 349 348 347 345 345 345 344 343 342 342
308 309 312 314 319 324 330 332 330 330 328 327 330 331 333 333 333 335 342 345 347 349 350 350 348 347 346 346 346 346 345 343
306 310 313 315 317 319 324 328 333 332 329 329 329 329 329 332 334 337 340 343 346 346 348 349 348 348 347 346 347 346 346 346
307 309 314 315 317 317 321 328 331 332 329 329 331 329 329 328 326 327 335 341 344 344 344 346 347 347 347 346 346 347 346 346
310 309 310 311 313 314 316 322 330 331 333 331 332 333 332 329 328 328 327 334 341 342 341 342 346 346 346 347 345 345 346 346
309 307 309 312 313 314 315 317 322 326 330 332 331 330 329 331 337 339 339 334 336 342 340 341 342 343 343 345 344 345 345 346
309 308 312 316 314 315 317 320 322 325 328 330 335 343 343 343 343 343 344 346 344 335 339 337 339 342 343 343 344 345 345 346
309 309 317 317 322 317 325 325 326 328 330 333 339 344 343 340 340 341 343 345 346 340 335 336 337 344 344 346 345 344 345 346
311 315 316 325 323 323 328 324 321 325 329 334 341 346 346 341 339 339 342 345 348 344 331 337 342 342 344 345 345 345 345 345
310 315 323 323 319 319 322 330 318 321 324 334 341 349 343 337 339 342 344 351 347 335 334 340 342 344 344 345 345 344 344 345
310 312 312 317 318 318 331 325 315 317 320 332 335 332 331 333 338 342 343 348 343 344 341 342 343 343 344 346 343 343 345 345
311 313 315 312 317 322 317 314 315 316 317 328 325 323 323 330 337 340 342 346 349 347 345 343 342 342 343 344 344 345 345 345
311 312 307 312 313 313 313 314 314 314 315 320 321 318 316 317 325 338 343 344 348 350 348 347 345 344 344 345 345 345 346 346
310 310 311 312 312 312 312 312 313 314 314 316 319 319 317 314 314 327 342 343 343 346 347 347 346 347 347 346 346 346 346 347
311 310 310 311 311 312 313 312 313 315 314 314 316 318 318 318 315 313 317 341 343 344 346 348 351 353 353 351 350 349 348 349
311 309 310 311 312 312 312 312 312 312 315 314 313 316 317 318 317 315 311 313 333 342 343 345 345 346 347 351 356 355 355 354
308 307 309 310 310 311 310 311 310 311 311 313 312 314 316 317 317 318 315 311 311 315 342 342 342 341 341 342 342 346 354 355

GFSFLT2_850_thetae_048.txt.gz
Theta_e
318 320 323 326 328 327 330 330 330 327 325 326 331 335 336 337 342 344 348 349 350 351 350 348 349 349 349 348 343 346 346 334
315 316 319 324 326 328 328 331 332 331 330 327 329 335 336 337 338 343 347 349 350 351 351 350 349 349 350 350 349 345 348 343
311 312 317 322 324 326 328 329 331 333 331 330 329 330 335 336 336 338 345 348 349 350 351 351 350 349 350 350 351 350 347 348
312 312 313 314 322 325 328 330 330 332 333 330 329 330 330 333 336 337 341 346 348 349 350 351 351 350 350 350 350 350 345 343
311 311 312 313 315 320 324 327 331 333 333 331 331 331 330 330 331 336 338 342 346 347 349 350 351 351 350 350 349 349 350 345
311 312 311 314 316 318 322 326 328 329 330 333 331 331 332 332 333 332 334 338 342 346 347 350 350 352 351 351 350 349 350 350
311 310 310 310 310 314 319 322 325 326 328 330 333 332 332 332 331 332 332 335 341 343 346 349 350 352 352 352 351 350 350 351
311 310 310 310 309 310 313 316 320 322 325 327 330 331 331 330 332 333 336 336 333 339 343 347 350 352 354 352 352 352 351 351
311 309 309 309 310 311 312 315 318 322 325 329 333 335 335 334 334 338 341 342 344 341 339 344 347 351 352 352 352 352 352 351
311 309 311 310 311 312 313 314 318 321 323 327 333 335 345 344 344 344 344 345 346 345 345 340 344 346 351 352 352 352 352 349
312 311 310 311 313 317 315 316 318 323 324 324 329 335 346 344 343 344 345 346 347 348 347 348 342 345 349 351 354 353 351 348
312 311 312 314 310 308 319 323 326 327 330 329 331 340 341 340 340 341 344 346 348 351 352 350 350 344 347 351 352 353 351 344
311 312 311 310 309 308 322 328 323 324 327 336 338 336 331 331 335 339 342 345 350 352 352 351 349 343 347 351 351 349 354 355
311 311 312 310 308 316 321 317 316 318 324 325 323 322 322 324 332 341 345 347 352 349 346 344 341 345 350 351 351 354 354 355
311 313 310 305 306 313 314 316 315 316 320 319 319 319 319 320 323 331 343 349 353 352 350 349 350 349 353 354 354 356 356 355
308 309 305 309 310 312 314 314 314 315 316 318 320 319 320 320 320 321 333 343 348 352 355 354 353 353 354 356 355 358 358 359
307 305 307 310 309 312 313 313 313 314 315 314 318 318 319 321 321 318 320 335 343 346 348 349 351 354 357 358 357 358 359 360
310 306 307 307 310 312 313 312 312 313 314 316 316 317 319 320 321 321 318 320 331 340 342 343 343 346 349 356 359 354 356 357
307 307 309 310 310 310 312 312 312 313 314 313 314 316 319 321 321 320 319 320 321 324 334 336 337 339 344 347 354 361 357 357

GFSFLT2_850_thetae_051.txt.gz
Theta_e
322 323 325 328 330 328 329 331 333 331 328 328 333 336 340 342 346 348 349 350 349 349 349 349 350 349 349 350 350 347 348 334
319 320 322 325 328 330 329 331 334 334 333 329 329 332 335 340 342 345 347 349 350 350 350 350 350 351 351 350 351 348 347 343
317 317 319 319 322 327 329 329 330 334 334 333 331 330 331 335 338 341 344 347 349 350 351 351 350 351 352 351 351 352 350 349
317 317 316 317 320 321 327 332 331 331 333 333 333 331 330 332 335 337 339 345 348 349 352 352 352 351 352 351 352 353 352 352
317 317 316 315 317 321 324 325 331 332 331 332 332 332 331 331 331 335 337 340 347 349 350 352 353 352 352 352 351 351 353 353
317 318 315 317 315 317 321 325 327 329 332 332 333 332 333 332 331 332 336 338 343 347 348 350 352 353 352 352 351 350 352 352
314 314 314 314 315 316 317 320 322 326 329 332 333 333 333 332 333 333 333 338 340 345 347 350 351 353 353 353 352 351 350 351
316 314 313 313 313 314 314 314 319 323 325 327 327 327 330 331 333 334 335 336 338 341 345 349 351 353 355 353 353 352 351 350
316 315 313 313 313 313 313 314 313 315 320 322 324 326 327 331 333 332 334 335 338 336 342 344 348 353 353 355 353 353 353 352
317 314 315 313 313 312 312 313 314 315 315 318 320 322 324 332 344 345 344 341 343 343 342 341 344 347 352 355 356 355 354 356
317 315 313 312 312 312 316 315 317 318 319 316 317 319 323 327 345 346 346 347 347 347 347 346 343 344 348 353 358 356 357 355
315 315 315 313 313 313 312 317 315 317 319 318 317 322 326 339 347 346 345 346 348 349 349 349 350 346 346 351 354 357 357 357
317 315 314 312 312 311 313 315 316 320 320 317 321 322 325 337 339 340 343 346 348 351 351 352 353 351 345 348 353 355 357 359
314 315 316 312 312 313 313 310 310 317 320 322 327 334 331 330 332 335 338 344 347 355 355 355 355 355 352 347 350 354 357 358
314 314 313 311 309 309 307 308 309 319 327 330 330 329 327 326 328 330 340 345 350 356 356 350 349 355 354 346 354 354 356 358
308 311 310 309 306 307 307 309 312 316 321 323 324 324 323 324 324 327 336 346 351 353 359 357 354 349 347 355 355 356 358 358
308 307 304 308 309 308 310 312 313 315 317 319 321 323 322 323 321 323 327 336 341 346 349 354 356 357 356 359 357 358 356 359
309 304 307 307 306 308 311 311 313 317 315 316 319 321 323 320 317 320 322 326 330 335 341 344 350 356 358 358 358 359 360 360
304 304 304 305 303 309 311 312 313 313 316 318 320 321 323 321 320 317 320 322 324 326 330 337 344 350 354 357 357 360 360 362

GFSFLT2_850_thetae_054.txt.gz
Theta_e
321 325 326 327 330 327 328 329 330 331 330 329 331 334 344 344 347 348 348 350 349 349 348 348 348 347 349 349 347 346 338 331
322 323 324 324 326 329 329 332 334 331 333 332 332 334 339 344 342 342 342 350 350 349 349 350 349 349 349 351 350 348 346 334
321 321 321 322 322 325 329 331 332 332 332 335 338 334 336 345 343 340 344 347 340 349 350 350 351 351 350 351 353 351 350 347
318 320 320 319 320 320 322 331 331 331 331 332 335 334 333 331 334 345 346 344 346 347 348 351 352 352 352 351 353 354 352 351
317 318 318 318 317 318 319 321 327 332 332 332 333 336 332 331 330 334 346 347 338 343 347 351 351 352 353 353 352 355 356 354
318 318 318 318 318 317 317 322 323 324 329 334 332 335 335 334 334 332 334 341 345 350 351 353 352 352 353 353 353 353 356 355
315 315 316 316 316 317 317 318 322 324 325 330 328 330 332 333 333 334 335 333 337 341 347 355 354 353 353 353 353 353 353 354
315 315 316 317 316 316 317 317 317 319 322 324 324 326 328 330 330 329 331 336 337 337 349 353 354 354 354 353 354 353 352 353
316 314 315 317 317 316 316 316 317 317 320 321 321 322 324 324 325 325 327 334 336 338 341 345 355 355 355 354 354 354 352 353
318 316 319 317 317 317 315 316 316 316 317 318 318 316 316 318 320 322 323 336 346 338 342 345 347 345 357 357 355 355 353 353
318 317 315 314 315 315 317 316 315 316 317 316 316 316 318 318 317 319 323 331 348 348 347 345 345 347 355 357 357 355 356 353
318 317 316 314 314 313 314 315 315 314 314 315 315 318 321 318 319 320 330 346 347 348 349 348 340 345 346 355 357 357 355 357
318 318 314 313 313 313 314 314 315 316 316 316 318 320 321 323 319 333 339 339 347 348 350 339 338 346 348 348 354 357 357 357
318 318 317 314 314 315 315 314 313 312 312 314 314 315 321 323 328 336 339 340 343 347 347 347 355 355 348 348 349 354 360 358
312 316 312 310 311 311 311 311 310 310 311 313 314 317 322 330 333 334 332 335 341 344 349 361 361 362 355 349 345 352 355 360
309 311 309 308 307 307 308 308 308 309 310 313 315 320 328 328 327 327 331 337 342 347 350 343 346 356 362 353 352 354 357 358
308 307 305 307 306 306 306 307 307 309 313 314 317 325 324 324 323 325 328 334 338 342 346 349 353 354 357 356 360 357 359 358
308 305 303 304 304 303 306 310 310 313 314 316 318 322 321 319 321 323 325 328 332 339 342 347 351 355 357 357 362 360 362 361
306 305 305 303 303 302 306 309 312 313 313 313 317 322 321 318 318 319 321 322 326 329 335 339 346 351 356 359 361 364 364 362

GFSFLT2_850_thetae_057.txt.gz
Theta_e
320 323 325 325 324 322 322 323 324 325 325 325 325 337 345 344 347 345 344 346 348 349 347 347 346 346 345 343 343 342 332 333
318 321 324 323 324 322 322 325 326 326 326 328 327 326 343 345 344 348 346 348 349 349 349 348 347 347 346 345 344 344 341 330
315 318 320 321 320 322 321 324 326 325 325 326 330 331 343 344 344 349 346 344 344 341 349 350 348 347 348 347 346 346 345 341
313 315 316 316 319 318 318 321 324 328 329 327 328 331 337 344 343 348 342 347 344 335 337 349 350 348 348 348 348 347 346 346
313 313 316 316 316 314 313 312 315 318 325 326 326 327 330 333 337 346 346 347 342 336 338 349 350 350 349 349 350 350 349 348
314 314 314 315 315 315 314 311 313 316 319 320 325 326 326 330 328 336 346 344 339 341 342 348 347 351 350 351 351 352 352 351
312 313 313 314 314 315 314 314 314 314 317 323 322 322 324 324 323 324 327 344 343 342 340 341 342 349 352 352 352 352 354 353
312 313 313 314 315 316 316 315 315 315 315 315 316 317 317 316 317 318 319 321 322 327 337 341 342 347 352 353 353 352 354 355
314 314 314 315 314 315 315 316 314 314 314 315 315 317 316 317 318 318 319 318 328 338 345 343 344 340 340 352 354 353 353 355
314 314 316 315 314 315 316 316 315 315 314 315 316 316 316 316 317 320 320 327 327 344 348 347 342 346 342 349 354 354 354 354
312 314 313 313 313 313 314 314 315 315 315 316 317 316 315 317 320 320 320 319 333 339 346 348 340 343 347 351 350 354 354 353
315 314 314 311 312 312 313 312 313 315 315 315 314 316 315 317 315 315 315 315 332 334 327 327 345 349 341 339 339 353 356 354
316 318 316 312 312 314 315 314 313 313 314 313 312 313 313 314 313 312 313 314 328 332 326 326 338 350 349 340 342 347 353 357
314 317 315 310 311 314 311 309 309 310 311 311 311 311 311 313 312 310 310 313 332 326 328 332 341 345 356 357 350 349 359 358
309 311 309 309 308 307 307 307 307 308 309 310 309 309 310 311 311 311 328 325 331 323 327 333 332 334 347 349 351 355 348 358
306 309 308 307 306 306 304 305 305 307 307 308 308 309 309 311 315 324 331 332 331 327 331 333 333 340 339 333 345 354 356 350
307 307 306 306 305 304 303 304 305 307 309 308 309 311 313 314 319 325 327 329 332 334 335 336 340 343 339 333 331 346 356 356
307 306 306 305 304 303 302 303 304 307 311 311 314 314 315 316 321 325 326 328 330 333 335 337 340 343 346 345 338 340 353 358
307 307 306 305 304 304 303 302 303 304 307 310 311 312 316 318 322 322 322 323 326 330 332 334 337 341 345 349 351 354 354 351

GFSFLT2_850_thetae_060.txt.gz
Theta_e
317 315 321 323 322 317 318 319 320 321 322 324 328 328 344 343 341 340 341 343 345 347 345 344 344 344 344 343 343 342 341 335
315 315 317 322 320 322 316 321 323 322 323 323 327 333 339 342 341 341 343 344 348 347 345 345 345 344 344 344 344 343 342 340
312 311 312 312 314 317 316 319 322 322 322 327 329 331 331 342 342 344 347 345 348 348 346 345 345 345 345 345 344 343 343 342
312 312 313 312 311 309 315 318 317 322 323 324 326 327 325 328 343 346 347 347 348 348 348 346 346 346 346 346 345 345 344 343
311 310 310 312 312 311 308 307 311 313 314 320 325 325 323 324 340 347 346 347 348 348 345 345 347 347 347 347 347 346 345 345
311 312 311 312 312 312 309 308 309 311 313 314 317 317 318 321 331 346 346 347 346 343 339 339 339 346 347 347 347 347 346 346
310 311 312 312 312 313 312 312 312 311 312 313 314 314 315 318 318 325 333 345 342 335 333 336 339 337 346 348 348 348 347 347
311 312 312 313 313 314 313 313 314 313 311 311 314 315 316 317 318 322 325 323 333 342 346 346 344 341 342 346 349 349 349 349
313 311 312 312 312 313 313 313 313 313 312 312 312 314 314 320 320 321 320 318 317 330 330 333 344 341 341 342 345 350 350 351
311 312 312 310 310 311 312 313 313 313 314 314 314 315 316 316 316 315 315 314 314 314 336 335 339 342 342 344 344 350 351 352
312 309 310 312 311 312 313 312 314 314 314 313 312 313 315 314 312 312 312 311 312 312 317 336 331 328 344 343 345 345 351 352
312 313 312 311 309 310 312 310 309 310 310 310 311 312 311 312 311 311 311 311 310 311 312 334 333 331 341 341 340 349 349 351
313 314 314 308 309 310 313 311 308 307 307 307 308 310 310 310 310 310 310 310 310 310 315 319 327 337 337 343 340 339 337 350
308 312 313 307 308 309 308 306 306 305 305 305 306 307 308 309 309 309 309 309 309 311 326 323 326 322 334 339 343 339 339 339
309 306 307 307 306 306 306 305 304 304 304 305 306 307 308 308 308 309 309 309 309 309 317 328 331 324 324 324 338 338 337 344
306 305 305 305 306 305 304 304 303 303 304 306 306 309 309 308 309 309 310 309 309 310 311 330 329 329 328 326 326 334 336 333
307 306 306 306 305 305 304 304 304 303 304 306 308 310 310 311 311 312 313 313 313 313 316 326 327 329 332 333 336 343 337 336
305 306 306 305 305 305 304 303 303 303 303 305 307 309 309 309 311 312 313 317 320 322 326 327 328 330 332 335 335 342 341 338
307 308 307 307 305 305 304 303 303 303 303 303 304 307 307 307 313 317 316 320 322 325 326 326 328 331 334 334 336 338 341 345

GFSFLT2_850_thetae_063.txt.gz
Theta_e
315 314 315 320 320 315 315 315 319 318 321 323 328 329 330 343 347 347 346 344 345 346 345 345 345 342 341 341 341 341 342 341
313 313 313 315 317 320 314 319 322 320 321 328 327 325 327 341 345 347 347 348 346 346 345 345 346 343 342 342 342 342 342 342
311 311 311 310 310 309 313 314 318 320 324 325 325 322 323 330 341 345 344 345 344 345 345 345 345 344 343 342 342 342 342 343
311 309 311 311 310 307 311 316 313 318 321 314 319 319 319 340 338 341 341 341 344 345 346 344 343 344 344 343 343 343 343 343
310 308 308 310 310 309 305 303 308 312 314 314 313 314 317 335 344 346 346 347 346 347 346 345 344 344 344 344 344 343 343 343
309 311 309 311 311 310 307 309 309 309 311 310 311 313 314 319 327 344 342 338 343 337 337 339 340 339 343 345 345 345 344 344
309 309 311 311 312 312 312 312 312 311 311 310 309 310 314 321 322 323 322 318 327 338 334 336 334 344 339 344 346 346 346 345
311 311 311 312 312 312 312 311 312 312 313 310 314 314 317 317 316 316 316 313 313 322 336 337 335 344 343 339 343 347 347 347
311 310 310 310 311 312 312 313 312 313 311 313 312 313 314 313 313 313 312 312 311 311 315 330 335 335 342 343 338 345 347 348
309 309 308 308 309 311 311 315 313 314 313 312 311 311 314 312 311 311 311 311 310 310 311 314 326 339 339 343 342 341 346 347
308 305 308 311 310 309 310 312 309 310 309 309 309 310 312 314 312 310 310 311 311 310 310 310 316 323 333 345 344 345 343 346
309 309 312 310 308 308 309 312 307 307 307 306 307 310 310 311 310 310 311 311 311 311 311 311 312 315 321 334 344 346 344 345
312 315 312 308 307 308 312 309 305 306 305 305 305 307 307 307 308 308 309 311 311 311 311 311 310 317 319 322 323 338 344 340
307 308 307 307 307 307 306 305 305 304 304 304 303 304 305 306 307 309 309 309 310 310 311 311 311 310 318 317 321 325 332 339
303 303 305 306 305 305 305 304 304 303 303 303 303 303 306 308 310 309 309 309 309 309 310 310 310 310 311 319 323 319 321 328
303 303 305 306 306 304 305 304 304 303 303 303 303 304 306 309 310 309 309 310 311 310 310 310 310 310 310 316 326 323 321 324
306 305 306 306 305 305 305 305 303 303 303 303 304 304 305 307 309 308 309 310 311 313 311 310 310 310 309 312 326 325 322 323
303 305 305 306 306 306 305 305 304 303 303 303 303 304 304 306 307 307 308 311 314 313 312 312 315 311 312 312 322 325 325 321
307 307 307 307 307 307 306 306 306 304 302 302 302 302 302 304 305 306 307 310 312 315 315 317 319 322 326 324 323 319 326 327

GFSFLT2_850_thetae_066.txt.gz
Theta_e
313 312 314 317 317 315 314 314 317 317 321 323 323 321 322 324 342 345 347 349 348 347 346 345 345 344 343 345 343 342 340 340
312 312 311 314 312 317 313 319 322 318 325 326 321 320 320 324 335 342 346 346 348 347 347 346 345 343 344 346 344 342 340 340
309 309 309 310 310 308 311 313 317 321 324 318 318 318 316 337 344 337 345 346 344 342 344 346 346 345 344 345 345 343 341 341
310 308 309 309 310 306 315 317 309 317 320 312 310 312 317 331 344 342 342 345 346 345 345 342 344 344 344 344 344 342 341 341
311 308 308 309 309 307 303 303 309 315 313 310 311 312 319 326 323 330 338 340 343 344 344 344 343 342 343 344 343 343 341 341
308 310 308 311 311 310 306 309 309 310 312 310 310 311 316 317 317 318 323 332 335 338 337 340 341 343 343 343 343 344 343 343
308 310 311 311 312 311 311 309 311 309 312 311 311 311 313 313 313 312 312 312 321 328 335 336 338 343 342 342 344 344 344 344
310 310 311 311 311 311 311 311 311 310 312 311 312 313 313 312 311 312 311 311 310 312 324 330 337 339 341 342 340 342 344 345
308 309 309 310 310 310 311 311 312 312 312 311 311 310 310 312 311 310 310 310 311 311 310 316 328 333 333 342 343 340 343 345
307 306 305 306 308 309 312 313 310 311 310 308 308 307 309 311 311 310 309 310 311 311 311 311 312 318 323 333 344 343 337 340
305 302 307 310 308 307 309 311 308 308 307 306 306 307 310 311 311 309 309 309 310 310 311 311 311 311 317 323 340 345 342 342
303 309 310 309 307 307 308 312 305 306 305 305 305 306 308 309 309 309 308 309 310 311 311 311 311 311 313 315 321 325 342 345
308 310 310 306 306 307 310 308 305 305 304 304 304 305 305 305 306 307 307 308 309 310 310 310 311 311 311 312 314 318 322 338
307 308 305 306 305 306 305 305 305 304 303 303 303 303 303 303 304 305 306 308 309 310 310 310 310 310 311 311 310 319 318 317
300 301 304 305 305 305 305 304 304 304 303 303 304 304 303 303 304 305 306 309 309 310 310 310 310 310 310 311 311 310 315 315
301 302 303 305 305 305 304 304 304 303 303 303 303 303 302 303 304 305 306 308 308 308 310 310 310 310 310 310 310 310 311 317
306 304 305 305 305 305 305 305 305 304 303 303 302 302 303 304 304 304 305 306 307 307 307 309 311 311 310 310 311 311 314 319
302 305 305 305 306 306 307 307 306 306 306 304 302 302 302 301 302 303 304 305 306 306 306 308 311 314 312 311 311 315 320 320
306 307 307 307 307 306 306 306 306 307 306 304 302 302 301 302 302 302 303 304 304 304 305 308 310 314 313 312 315 319 320 322

GFSFLT2_850_thetae_069.txt.gz
Theta_e
314 315 318 321 324 323 323 321 327 326 327 325 322 327 333 343 344 345 349 350 349 347 346 346 345 345 344 344 344 344 342 341
314 314 316 320 317 323 324 327 328 327 331 327 322 327 334 341 343 341 345 349 349 348 346 346 346 345 345 344 343 343 344 342
316 315 315 319 320 319 322 323 327 329 329 317 321 330 331 328 335 344 346 346 348 348 347 346 346 345 345 344 343 343 345 344
315 312 312 314 314 315 326 326 322 328 323 316 323 326 323 323 324 329 336 340 345 347 345 346 346 346 346 345 344 344 344 345
316 315 313 315 314 313 312 316 322 326 319 316 323 321 319 318 317 317 320 326 331 342 342 343 345 345 344 344 345 344 344 344
316 316 314 316 314 314 315 319 318 318 318 318 321 320 316 316 314 313 313 316 320 328 334 341 342 342 343 343 344 345 344 344
314 313 314 314 314 314 315 315 318 317 317 318 319 318 315 314 314 314 311 311 312 313 316 325 337 341 342 342 343 343 346 345
315 313 313 314 313 313 313 313 314 315 317 315 315 315 316 315 314 313 313 312 311 312 311 312 318 330 334 338 342 342 344 344
315 313 312 312 313 313 314 316 315 316 317 314 315 313 313 312 313 312 311 311 311 311 311 311 311 312 320 330 341 344 342 340
314 312 313 313 311 311 315 315 315 316 313 311 310 310 310 312 311 311 310 310 310 310 311 312 311 311 312 316 327 340 345 341
316 313 312 312 311 311 313 313 310 311 310 309 308 309 313 310 309 308 308 308 308 309 310 311 311 311 311 313 314 330 336 342
315 315 315 313 309 308 310 314 308 308 308 308 307 313 313 309 307 307 307 307 308 309 309 310 311 311 311 311 312 313 323 330
316 316 315 311 308 309 315 314 307 307 306 306 307 306 305 305 306 306 306 306 307 308 310 310 310 310 310 311 311 312 312 326
313 314 315 309 308 312 309 307 306 306 305 305 305 305 305 305 306 306 305 306 307 309 309 310 310 310 310 310 310 310 312 311
312 314 308 308 308 307 306 306 306 305 304 304 304 304 304 305 305 305 305 306 307 308 309 310 310 310 310 310 310 310 310 312
309 310 307 308 307 307 306 306 305 305 304 305 305 304 304 304 304 304 304 304 305 307 308 308 308 309 309 310 311 311 310 310
310 309 307 306 307 307 306 306 306 306 306 306 306 304 304 304 303 303 302 302 302 305 306 307 308 308 308 308 309 312 312 311
315 309 310 308 306 306 307 307 307 308 307 307 306 305 304 304 304 303 303 302 302 303 304 304 305 306 306 307 308 313 314 313
309 307 307 306 306 306 306 306 307 307 306 306 306 306 305 305 305 303 303 302 302 303 303 302 303 305 305 307 308 312 317 317

GFSFLT2_850_thetae_072.txt.gz
Theta_e
320 321 324 331 333 330 329 330 332 331 332 328 330 340 340 344 345 346 351 351 351 349 349 348 349 349 350 350 344 344 344 343
318 319 321 325 328 329 328 331 332 331 333 331 332 341 340 338 341 347 349 351 351 351 350 349 349 349 350 350 350 344 344 345
320 322 324 324 325 326 328 329 331 333 332 325 334 335 335 333 331 335 340 347 350 351 350 350 350 350 350 350 351 351 347 347
322 317 318 321 324 326 328 331 330 331 327 327 331 328 325 323 323 323 326 328 342 347 349 349 349 350 350 350 350 351 351 350
320 319 318 321 321 322 324 326 330 329 326 328 328 329 320 318 317 318 318 319 328 339 343 345 346 348 349 349 349 349 350 350
320 321 321 321 319 320 323 327 329 328 326 328 327 327 325 318 315 315 315 315 314 318 328 334 342 346 346 347 348 349 350 350
318 317 318 318 318 318 321 324 326 326 326 327 325 323 321 320 319 315 314 314 314 312 312 314 325 335 340 340 343 345 348 350
320 317 318 318 317 317 317 319 322 323 323 321 321 321 320 319 319 318 316 315 314 313 312 312 311 314 327 334 341 342 344 345
320 317 316 317 318 317 317 318 320 321 323 319 320 318 317 317 319 317 316 315 315 313 312 312 312 312 312 321 334 340 344 344
318 317 316 318 316 316 318 319 319 320 318 317 316 316 316 317 315 314 313 313 313 313 314 314 312 312 312 312 313 329 342 344
318 317 316 315 315 315 318 318 316 317 315 314 314 314 317 314 313 312 312 312 312 312 313 315 316 314 312 312 312 311 317 335
317 320 318 319 314 313 314 318 314 314 314 313 313 315 318 312 311 311 311 311 311 311 312 314 316 316 316 317 312 311 312 314
319 320 318 315 312 313 316 319 313 312 312 312 313 312 310 310 310 310 310 310 310 311 312 313 314 315 316 317 318 312 311 312
319 320 322 313 313 317 315 311 311 310 310 310 309 309 309 308 309 309 309 309 309 310 311 312 313 314 315 316 316 313 311 311
318 319 314 313 313 312 310 311 310 309 308 307 308 309 308 307 307 308 308 307 307 307 307 308 310 312 313 314 314 314 313 311
315 313 312 313 311 310 310 309 309 308 308 308 308 308 307 307 307 306 307 306 306 305 306 306 308 309 311 312 312 313 313 314
315 313 311 311 311 311 310 309 309 308 308 309 308 308 308 307 307 307 307 307 306 306 306 306 306 307 308 308 309 310 312 314
319 314 313 312 311 310 310 309 309 309 309 309 308 308 308 308 307 306 306 306 306 306 305 304 305 306 307 306 306 308 310 312
314 312 312 311 310 310 310 310 309 309 309 309 308 308 308 307 307 306 306 305 306 305 303 304 303 303 304 305 304 306 307 309

GFSFLT2_850_thetae_075.txt.gz
Theta_e
328 331 334 334 335 333 333 332 333 336 335 336 342 343 344 348 347 342 352 351 351 349 350 348 348 346 345 349 354 355 354 355
325 325 328 329 332 335 334 335 334 335 337 337 343 343 343 341 343 346 347 348 350 350 350 348 348 348 346 348 354 355 354 355
324 325 327 328 330 332 333 332 334 336 336 336 342 341 339 330 331 332 332 334 341 347 350 350 350 350 349 349 351 354 355 354
325 325 324 326 328 330 332 333 332 333 332 335 337 334 329 324 324 325 323 324 327 341 347 349 349 350 350 350 350 351 353 354
325 324 324 325 326 327 329 330 332 332 335 334 332 328 324 322 321 320 320 321 329 336 343 346 347 348 349 350 351 350 351 353
324 324 324 325 325 325 327 329 331 332 336 333 334 328 320 319 319 320 319 317 318 326 329 336 340 346 347 348 348 350 350 351
321 320 323 324 324 323 325 327 329 333 335 333 331 330 324 320 318 318 317 317 316 316 314 320 326 336 344 343 344 347 349 351
320 320 320 321 321 320 322 325 327 330 332 328 325 325 325 325 323 319 318 318 316 316 316 314 314 315 325 337 341 343 345 347
322 320 319 319 320 320 321 322 325 329 329 326 326 324 323 324 322 320 319 318 318 317 317 318 318 316 316 317 327 339 342 342
323 323 323 320 320 319 320 321 325 326 325 324 323 321 320 321 319 318 318 317 317 317 317 317 318 317 316 317 313 314 329 342
322 323 321 320 318 318 321 321 321 323 321 320 318 319 320 317 316 316 316 316 316 316 316 317 319 319 318 318 315 314 312 317
321 322 322 321 318 317 318 323 318 319 318 318 317 320 323 316 315 315 315 315 315 315 315 316 318 318 319 320 320 322 318 312
323 323 322 320 316 316 318 322 317 316 316 316 317 317 315 314 314 313 314 314 313 314 314 316 316 317 318 319 320 321 320 319
322 323 328 317 316 318 320 317 315 315 314 314 314 313 312 312 312 312 312 312 312 312 312 312 313 314 316 317 318 318 318 317
322 324 320 317 317 317 317 316 314 314 312 311 311 312 311 311 311 311 310 311 310 311 311 311 311 312 313 314 315 316 317 317
318 317 316 316 314 313 312 313 312 311 311 310 311 311 311 311 310 310 310 310 310 310 310 310 310 311 311 311 312 313 313 314
317 316 315 315 314 313 312 312 311 311 311 311 311 311 311 311 311 310 309 309 309 308 309 309 309 309 309 310 310 310 311 311
321 317 317 315 314 313 313 312 311 311 311 311 311 311 311 311 310 309 309 309 308 308 308 309 308 308 308 308 307 308 308 309
317 316 315 315 314 313 313 312 312 312 312 312 311 310 310 311 310 309 309 308 307 306 306 306 306 306 306 305 305 305 306 307

GFSFLT2_850_thetae_078.txt.gz
Theta_e
328 327 329 334 336 336 334 334 334 337 343 345 346 348 350 349 346 348 348 349 350 350 350 348 347 346 347 344 342 342 343 348
327 327 330 331 333 335 335 336 339 338 344 348 347 346 346 342 338 336 337 345 348 349 351 347 349 345 348 346 344 342 349 349
328 328 331 333 335 332 333 335 337 341 342 344 346 344 340 335 331 327 330 334 347 347 348 349 349 348 349 351 348 349 353 355
327 326 327 329 331 331 335 338 335 339 341 340 339 335 332 330 329 323 322 328 333 341 346 347 348 348 349 348 353 349 355 355
327 326 326 325 327 328 330 332 338 337 340 337 333 331 327 327 326 324 321 323 324 333 342 346 347 347 348 347 348 350 355 354
328 326 325 326 326 327 328 329 331 336 342 338 334 331 326 324 323 322 322 320 319 322 330 339 344 344 346 346 342 345 350 353
324 323 322 325 325 326 326 328 333 338 341 337 334 329 326 323 323 322 320 320 321 319 320 331 337 337 342 344 345 345 347 348
324 323 322 323 325 325 325 325 328 334 335 333 329 326 325 324 323 322 321 320 319 320 320 318 318 325 331 340 343 343 343 345
325 322 322 322 322 322 322 323 333 336 332 329 329 328 327 326 324 322 321 321 320 319 320 321 320 317 319 321 330 342 342 341
325 323 324 322 322 321 321 323 329 331 330 328 326 324 325 323 321 320 320 320 319 319 319 320 321 317 315 319 316 317 323 328
325 324 324 323 321 321 321 323 326 328 327 325 323 323 321 319 318 318 318 318 318 318 318 320 321 321 320 322 321 323 319 314
323 324 324 323 319 318 320 324 323 324 324 323 321 325 322 318 317 317 317 317 317 317 318 319 319 319 320 322 322 324 321 318
323 324 325 322 318 318 321 322 321 321 321 319 320 321 319 317 316 316 316 316 315 315 316 316 316 316 318 320 321 321 320 318
321 325 328 319 318 319 322 319 318 318 317 317 317 316 315 315 314 314 314 314 313 314 314 314 314 315 316 317 318 318 317 317
323 327 322 319 320 321 320 318 317 317 316 315 314 314 314 313 313 313 313 313 313 313 313 313 313 313 314 314 313 313 313 313
322 321 320 319 318 318 317 318 316 315 313 312 313 313 313 313 313 313 312 312 312 311 311 312 312 312 311 311 311 311 311 312
319 317 317 316 317 315 314 314 314 313 312 312 313 313 313 313 313 312 311 311 310 310 310 310 311 310 310 310 309 308 309 309
324 318 319 317 316 316 315 313 313 312 312 313 313 313 312 312 313 311 311 311 310 310 309 309 309 309 308 308 307 306 306 307
319 318 318 317 317 316 315 315 313 313 313 313 313 312 312 312 312 311 311 311 310 309 308 308 307 307 306 305 305 305 304 305

GFSFLT2_850_thetae_081.txt.gz
Theta_e
326 325 324 327 328 329 331 329 330 342 348 346 340 341 343 342 345 344 348 348 350 348 348 349 347 346 343 342 339 337 339 338
328 326 324 323 331 330 330 336 335 351 351 354 349 345 335 331 332 334 339 347 349 348 348 349 349 346 344 344 341 339 339 340
328 324 323 331 331 332 329 331 332 345 347 342 344 336 330 326 325 329 334 337 346 348 347 350 348 348 348 347 345 340 340 340
328 326 327 326 331 331 329 331 335 342 343 339 335 331 328 325 323 324 326 332 339 346 344 343 347 346 347 349 348 346 343 342
328 326 324 324 325 324 324 325 333 340 342 332 330 330 327 324 322 322 324 330 337 341 345 346 346 345 344 347 346 348 349 347
327 327 324 321 322 323 324 324 337 337 339 333 329 326 325 324 323 322 321 324 328 340 341 342 345 346 345 345 343 345 342 345
324 325 323 321 322 324 323 326 336 340 339 333 328 325 324 322 321 321 321 320 320 325 334 337 341 343 343 343 335 340 343 339
323 323 322 321 322 324 324 333 336 337 337 330 326 324 324 323 321 319 320 321 321 321 318 321 330 331 336 343 342 341 339 343
323 324 324 322 322 320 330 332 332 337 330 327 325 325 324 323 322 322 320 319 319 320 321 320 317 321 320 320 326 339 342 342
323 323 325 322 321 321 321 329 330 330 328 328 328 326 323 322 321 320 319 319 319 320 321 321 320 319 321 322 323 321 320 325
323 323 323 323 322 320 321 328 329 328 326 324 322 321 320 320 319 319 318 318 318 318 319 320 320 321 322 322 324 323 321 319
324 327 324 322 319 319 321 326 329 328 324 323 323 321 318 318 318 317 317 317 317 317 319 319 319 319 320 321 321 322 321 318
322 324 325 321 318 318 321 325 324 324 324 323 319 320 318 317 317 317 316 315 315 315 315 315 314 314 315 318 319 320 319 318
321 322 324 320 319 323 322 318 318 319 319 318 317 317 317 316 315 315 314 313 313 313 313 313 313 312 313 313 314 314 313 313
322 323 321 319 321 320 319 318 317 317 316 316 316 315 314 314 314 313 313 313 313 313 313 313 312 312 311 310 310 310 310 310
319 322 321 319 319 319 319 317 317 316 315 315 314 314 313 313 313 313 312 312 312 310 311 311 311 311 310 309 308 307 307 307
319 318 317 318 318 318 316 316 316 315 314 313 314 313 313 313 313 312 312 311 311 310 309 310 309 308 308 308 307 306 305 306
320 320 321 318 316 316 314 313 315 313 312 313 313 313 313 313 313 312 311 311 311 309 309 308 308 307 306 305 305 304 304 305
319 318 318 318 318 318 316 314 313 313 312 313 313 313 312 312 313 312 310 311 310 308 308 308 306 305 305 304 302 301 302 304

GFSFLT2_850_thetae_084.txt.gz
Theta_e
325 323 321 323 325 323 328 327 328 346 345 340 340 337 336 337 340 344 345 349 349 348 347 347 347 347 347 346 345 341 337 341
325 324 322 320 324 328 324 333 333 349 348 346 343 334 331 330 333 337 344 347 348 347 348 348 348 347 347 347 344 337 332 333
324 324 322 324 326 327 324 325 330 345 345 343 337 331 328 326 329 334 339 344 346 347 348 348 349 347 347 347 344 343 339 339
327 323 323 326 327 325 329 331 335 338 347 336 331 329 325 325 326 333 336 341 344 344 346 347 347 347 347 346 344 344 341 339
322 322 320 319 319 319 320 322 334 332 340 330 329 327 323 323 324 329 333 337 340 342 343 345 346 347 347 346 346 345 344 341
321 325 322 320 319 319 318 320 334 335 336 330 327 325 323 322 322 328 331 335 339 341 342 343 344 345 345 344 342 343 341 344
321 320 320 320 320 321 320 322 333 335 334 328 325 323 322 322 322 322 324 327 331 337 341 341 342 342 343 341 335 334 341 338
320 324 322 320 320 325 331 335 336 333 330 324 323 322 321 321 321 321 321 320 320 322 323 329 335 341 342 342 341 339 340 343
321 322 322 320 319 320 330 335 334 335 329 324 323 323 322 320 320 320 321 321 321 320 320 322 321 322 328 334 339 340 340 341
318 319 323 320 319 319 327 330 328 326 325 324 323 323 322 321 319 319 319 320 321 321 321 321 322 322 323 323 320 325 329 338
318 318 319 322 319 319 319 327 328 326 325 324 322 321 321 320 320 319 318 319 320 321 320 321 322 322 324 324 323 321 321 320
317 322 321 319 318 318 321 324 325 325 322 320 320 319 317 319 319 318 317 318 319 319 320 319 320 321 322 322 322 321 320 319
318 320 322 319 318 318 321 320 324 322 320 319 317 318 317 318 318 318 317 317 317 317 318 317 316 316 318 319 319 319 319 318
314 316 318 320 319 319 317 318 322 322 321 321 320 317 317 317 317 316 315 314 313 313 313 312 312 312 312 313 313 312 312 311
316 316 318 320 320 318 317 318 319 320 318 318 317 316 316 315 315 314 314 313 313 312 312 312 312 311 310 309 308 308 308 308
314 319 319 320 320 319 317 316 316 317 318 317 316 316 315 314 313 313 313 313 312 312 311 310 310 309 309 307 306 306 305 305
313 315 317 319 319 319 318 316 316 315 315 315 315 314 314 313 313 313 313 312 312 310 307 307 307 306 305 305 304 304 304 304
314 318 317 317 318 318 318 318 317 315 314 313 314 313 313 313 313 312 312 311 310 310 308 306 306 305 304 303 302 301 302 303
319 318 318 318 318 318 317 316 316 315 313 312 313 313 313 313 312 312 311 311 311 310 309 307 306 303 302 301 300 299 300 300

GFSFLT2_850_thetae_087.txt.gz
Theta_e
324 321 319 321 323 321 323 324 328 344 343 342 338 333 338 341 342 342 345 347 345 345 343 343 343 341 343 345 345 344 343 341
323 323 320 320 320 324 322 331 332 346 347 343 344 336 334 336 335 338 341 346 348 345 346 345 343 343 344 345 345 345 345 343
322 321 320 321 325 323 321 323 331 345 343 340 338 332 330 331 332 338 341 343 345 346 347 347 346 345 346 346 346 346 345 344
324 319 318 317 320 323 326 330 330 334 340 332 329 327 328 328 330 335 338 341 343 345 347 347 347 347 346 347 347 347 345 341
323 320 319 317 318 317 317 323 332 334 336 332 329 326 326 326 328 334 335 337 340 343 344 346 347 346 346 347 347 344 344 343
323 323 320 320 318 318 316 319 326 328 337 333 328 324 322 323 326 330 335 337 338 341 341 344 346 345 345 345 346 342 340 343
320 319 319 318 319 322 320 321 329 332 334 332 326 322 322 323 324 324 329 332 335 338 340 342 343 345 345 344 341 341 339 340
320 325 320 320 320 319 331 332 331 329 328 323 324 323 322 323 322 321 323 324 326 330 337 339 342 342 343 343 337 337 339 341
322 318 326 326 320 319 327 331 330 333 327 322 321 321 321 322 322 321 321 322 323 323 324 327 335 338 340 340 340 339 338 339
317 318 325 323 320 322 328 328 326 325 323 322 321 321 321 321 321 321 321 320 320 321 322 323 324 323 326 331 337 338 340 340
315 317 318 320 318 319 324 327 324 324 323 322 322 321 320 320 319 320 321 321 321 322 322 323 324 324 323 322 323 325 328 332
315 320 318 316 317 317 319 324 325 324 322 321 321 320 317 319 319 319 320 320 320 321 321 321 322 324 323 323 322 320 320 320
316 317 318 318 318 318 322 318 324 324 322 321 320 319 320 320 318 318 318 319 319 319 319 319 318 319 320 320 320 319 318 318
311 314 317 319 318 318 315 318 321 323 322 321 319 319 318 318 317 317 317 317 317 317 316 315 313 312 312 313 313 313 312 311
314 313 315 319 318 318 318 320 320 321 320 320 319 319 318 317 317 317 316 315 314 313 312 311 311 310 309 309 309 308 307 307
314 317 317 319 317 317 317 317 320 321 320 320 317 317 317 316 316 316 315 314 313 312 311 311 310 308 306 306 305 304 304 304
311 313 315 318 319 318 317 316 316 319 320 321 319 317 316 316 315 314 313 313 312 312 310 308 306 305 304 304 303 303 303 303
313 315 315 316 318 317 317 316 316 316 317 318 318 317 316 315 314 313 312 312 312 310 308 306 305 305 303 302 301 300 300 301
318 318 318 318 318 318 317 316 315 316 315 315 315 315 315 314 313 313 312 312 311 309 309 309 306 304 302 301 300 299 299 300

GFSFLT2_850_thetae_090.txt.gz
Theta_e
319 317 318 320 318 317 322 322 333 339 341 340 338 339 341 342 344 345 344 343 341 342 344 343 344 344 343 342 343 344 343 343
321 319 320 320 319 324 320 329 331 344 343 339 344 340 340 338 338 340 345 345 343 342 343 344 343 345 342 343 343 344 344 344
320 320 318 322 325 319 320 322 334 342 341 337 338 337 337 335 336 339 340 344 345 344 344 342 342 343 343 343 344 344 344 345
321 318 317 318 319 320 324 329 329 332 335 331 331 329 332 332 334 337 341 343 343 344 346 345 343 344 343 343 344 345 345 345
319 318 316 317 316 315 316 323 333 332 330 329 327 326 328 328 331 333 337 341 342 345 345 346 346 346 344 343 345 343 346 343
319 319 317 318 317 319 314 320 325 326 333 335 328 325 323 325 330 332 335 339 340 342 344 345 346 346 346 346 346 346 346 343
319 318 318 319 319 321 328 318 327 326 332 330 327 323 323 325 327 330 332 336 338 340 342 343 344 345 344 344 344 343 343 342
320 320 323 324 320 324 331 332 331 330 332 324 325 324 322 324 326 327 329 334 336 338 340 341 342 344 345 344 343 342 341 338
321 317 325 326 322 327 329 329 329 332 326 321 321 322 322 322 323 324 325 326 329 335 337 339 340 340 340 341 339 338 338 339
318 317 326 321 319 325 328 327 326 323 322 321 321 322 323 322 322 322 323 323 324 325 327 331 333 337 338 339 338 338 338 338
315 316 316 319 316 317 320 326 323 322 321 320 320 320 319 321 322 321 321 322 323 323 325 324 324 326 329 331 333 334 335 336
314 317 317 314 317 318 318 320 323 322 321 320 320 320 317 320 322 321 320 320 321 322 323 324 324 323 322 321 321 323 324 323
315 315 316 315 317 318 321 319 323 323 322 320 320 321 322 319 320 321 320 321 321 321 321 321 322 322 321 320 320 319 318 317
310 313 315 317 317 318 315 318 322 324 323 321 320 321 319 319 319 320 320 319 319 319 318 318 317 316 314 314 313 313 312 312
311 312 312 318 318 317 317 318 320 324 324 322 320 320 319 319 318 318 318 318 317 317 316 313 312 311 310 309 309 308 308 308
314 315 317 318 317 317 317 318 319 321 324 322 320 320 319 318 317 317 317 316 315 313 312 311 311 310 308 306 305 305 304 304
311 312 316 318 319 318 317 317 318 320 321 322 320 320 319 317 317 317 316 314 314 313 312 311 309 306 304 303 303 303 303 303
312 315 316 316 318 318 317 317 317 317 319 320 321 321 320 318 319 317 315 314 313 312 311 308 306 304 304 303 302 301 301 301
316 318 316 317 317 317 317 316 316 316 316 316 316 317 319 318 317 316 315 314 312 312 310 308 307 305 303 301 301 300 300 300

GFSFLT2_850_thetae_093.txt.gz
Theta_e
321 323 324 323 324 327 333 331 338 343 345 344 342 344 346 346 345 347 347 345 345 347 345 344 344 343 345 344 343 343 343 343
323 321 321 324 324 327 327 336 338 347 348 346 348 345 343 344 343 345 346 344 342 343 346 345 343 344 344 345 346 345 344 344
324 325 325 325 326 326 329 331 334 339 344 344 346 345 342 340 340 340 342 343 342 342 342 345 343 343 344 344 343 344 344 344
323 320 320 322 327 329 328 334 338 338 340 336 339 342 340 339 340 339 342 343 342 342 342 342 343 344 343 343 344 343 344 343
324 323 323 326 323 323 328 335 339 333 336 334 334 336 335 336 336 337 339 340 342 343 344 344 342 343 343 344 343 344 343 343
327 325 323 328 328 321 326 329 336 334 339 337 337 337 332 330 332 333 337 339 341 344 345 347 345 344 343 344 345 344 343 343
323 324 325 326 332 333 325 325 331 332 334 338 338 336 333 332 330 331 334 337 339 341 342 344 345 345 345 345 345 344 343 341
324 323 326 325 328 335 334 334 334 335 335 329 333 330 328 330 329 330 331 335 337 339 340 340 342 343 345 345 345 344 343 342
326 323 327 328 326 327 330 333 333 334 334 330 330 329 330 329 330 329 329 333 336 337 339 339 339 341 342 343 343 343 342 340
325 327 327 324 323 326 328 330 330 330 329 331 330 329 327 327 328 328 327 327 329 334 337 338 340 340 340 340 341 341 337 338
326 325 322 322 320 321 324 326 329 329 327 327 325 325 325 324 325 326 325 325 326 327 332 333 335 336 337 337 337 337 337 337
323 322 323 321 320 319 321 325 328 327 328 326 325 335 331 323 323 323 324 324 324 325 325 326 326 326 329 330 330 331 331 332
323 322 320 320 319 319 326 325 324 326 327 326 329 327 324 322 322 321 321 322 322 324 324 323 322 322 321 321 320 319 319 318
320 322 323 319 320 322 321 320 321 326 326 325 322 322 321 321 321 320 321 321 322 322 322 321 320 319 317 316 314 313 313 312
321 322 318 318 320 317 317 320 321 322 326 324 321 320 319 320 320 320 320 320 319 319 318 317 314 312 310 310 309 309 308 308
323 322 320 320 318 317 317 318 318 321 323 322 321 320 319 319 319 319 319 318 318 317 315 312 311 311 310 309 307 306 305 305
321 317 318 319 318 318 317 317 317 318 321 322 322 321 321 319 318 318 318 317 316 314 312 312 311 309 307 305 304 303 303 303
324 319 321 320 319 318 318 318 317 317 318 319 320 321 321 321 320 319 318 317 315 314 313 311 309 307 305 304 303 302 302 301
319 317 317 317 316 317 317 317 317 317 317 317 317 319 320 320 320 318 317 317 317 317 312 310 308 307 306 304 302 301 300 300

GFSFLT2_850_thetae_096.txt.gz
Theta_e
325 326 327 331 333 333 335 337 339 341 340 345 345 347 348 349 348 348 350 348 346 349 350 350 349 349 343 343 349 352 350 347
325 325 325 327 329 334 334 339 339 340 341 340 350 350 348 350 349 348 350 350 348 348 350 348 345 344 342 349 347 345 345 350
325 325 325 326 327 327 332 334 336 338 341 347 348 350 349 347 347 350 351 350 349 350 351 351 347 344 344 344 345 349 346 346
325 326 326 326 326 328 329 335 334 336 343 344 347 347 347 344 344 344 345 346 347 349 349 349 349 344 343 343 343 343 344 343
328 327 326 326 327 329 329 329 335 335 337 343 344 346 345 345 344 342 340 341 342 343 345 347 345 345 344 343 343 344 344 344
328 326 327 329 328 328 329 329 330 333 338 346 346 345 342 342 340 339 340 339 342 344 344 344 345 347 345 343 343 343 344 344
328 327 328 328 328 327 328 328 330 331 333 343 345 345 342 339 339 338 340 340 340 343 344 344 345 346 345 345 343 343 345 344
328 328 327 331 332 330 329 329 329 332 333 336 341 342 341 339 335 338 339 339 336 340 342 344 346 345 346 345 345 344 344 344
328 327 329 329 329 330 332 332 333 331 339 337 340 339 339 339 337 338 338 337 334 339 340 341 343 344 345 345 345 345 344 343
327 328 330 328 327 328 330 331 332 334 335 336 337 338 338 338 338 336 335 332 332 337 339 339 340 341 343 343 343 343 343 342
328 329 327 326 326 326 327 330 330 334 334 336 336 335 334 334 335 335 335 334 332 335 337 337 338 339 340 340 340 340 342 340
324 327 328 327 323 322 324 329 328 332 333 334 334 340 338 332 332 332 331 332 332 331 334 334 334 334 335 336 336 336 336 337
324 324 323 324 322 322 327 329 328 331 332 332 335 331 331 330 329 328 328 328 326 325 326 326 325 325 326 328 328 327 327 325
324 324 325 322 323 325 326 324 325 329 331 331 329 328 329 328 327 326 325 324 324 324 323 322 321 320 320 319 318 317 316 316
323 325 323 323 323 322 323 323 324 326 328 330 328 327 327 327 326 325 324 323 324 323 322 320 318 316 313 311 310 310 309 309
323 322 322 323 322 322 322 321 321 324 327 327 327 327 326 326 325 324 324 323 322 321 320 317 313 311 311 310 309 308 307 306
323 322 323 323 322 321 320 320 319 322 325 327 327 326 326 325 324 324 323 321 321 320 319 316 312 312 310 308 306 305 304 304
322 320 319 320 320 321 320 320 320 320 322 324 325 326 325 325 324 323 322 321 320 319 318 315 313 311 309 307 305 304 306 308
321 321 320 322 321 321 320 321 320 320 321 322 322 323 324 325 324 322 321 319 318 317 318 316 312 310 308 307 305 303 307 307

GFSFLT2_850_thetae_099.txt.gz
Theta_e
328 329 331 333 339 338 339 340 345 343 349 348 343 342 345 348 347 349 349 347 346 347 350 351 351 351 353 354 353 353 352 351
327 327 328 329 333 338 338 342 344 344 344 344 350 350 348 348 350 350 349 349 346 348 351 347 348 350 351 347 348 351 353 352
327 327 328 328 329 333 336 336 339 345 346 345 350 350 351 350 350 349 350 351 350 348 352 354 352 350 348 344 343 348 352 351
327 327 326 327 327 330 333 338 335 336 350 344 348 349 350 352 352 354 354 353 352 351 352 353 351 349 344 343 340 343 348 346
330 327 326 326 327 327 328 330 333 334 345 345 349 349 349 349 348 350 350 351 353 353 354 354 352 348 346 344 344 344 343 344
331 330 328 327 327 327 328 329 329 334 348 349 350 350 348 347 346 345 345 345 347 349 350 350 351 349 347 344 344 343 343 343
329 330 330 327 326 327 328 330 331 331 337 346 349 349 347 345 344 343 344 344 343 343 346 348 349 350 348 345 344 343 343 344
330 329 329 328 329 328 328 328 329 330 338 344 345 347 346 345 345 345 344 344 341 344 344 344 344 348 351 348 346 345 347 346
333 329 330 331 331 330 329 329 329 332 339 339 344 345 346 345 343 343 343 341 340 339 342 344 345 345 347 348 347 347 346 345
334 333 331 330 330 331 332 333 332 335 338 339 341 342 343 343 344 343 340 339 339 337 340 341 343 344 345 346 346 344 345 345
332 332 331 331 330 330 330 332 332 335 336 337 339 341 341 342 342 341 339 339 338 334 339 340 340 340 343 343 344 345 344 343
330 332 333 330 327 326 326 333 331 332 335 338 338 342 342 339 339 339 338 336 334 332 337 337 337 338 339 340 339 340 341 340
327 326 330 328 325 324 327 331 331 331 333 335 339 339 338 337 336 335 335 333 330 332 335 334 334 333 334 334 335 335 335 335
327 330 329 324 324 326 330 327 329 331 333 333 334 334 335 335 334 333 332 330 330 328 326 324 325 324 323 323 325 323 321 325
326 331 327 325 327 326 326 327 327 328 330 332 331 332 333 333 332 331 330 329 326 324 322 322 322 321 318 315 314 313 312 312
326 325 323 323 323 323 324 324 324 325 328 329 330 331 332 332 331 330 329 327 326 325 324 322 316 312 311 311 311 311 310 309
325 325 324 323 323 322 322 321 321 323 325 327 329 329 330 331 330 330 328 327 326 324 323 322 320 319 315 311 309 308 307 308
323 323 323 322 322 322 321 321 321 321 323 326 328 329 329 329 329 329 328 326 325 324 323 322 320 318 314 311 309 315 314 314
323 322 322 322 322 322 321 321 321 321 322 322 324 327 328 328 328 328 327 326 325 324 323 322 321 318 313 310 308 307 311 312

GFSFLT2_850_thetae_102.txt.gz
Theta_e
328 329 330 333 335 337 339 342 348 351 351 348 342 342 343 344 345 342 340 345 346 347 347 344 350 354 343 351 349 350 351 347
328 328 329 331 333 335 342 344 348 348 350 351 347 346 345 346 345 340 340 345 344 345 347 343 342 347 352 346 350 351 353 350
328 328 328 328 329 331 334 340 343 346 351 347 348 345 346 347 348 347 349 350 346 345 346 345 340 349 349 352 347 351 353 353
330 328 328 327 328 329 333 337 337 338 347 344 345 348 347 351 349 353 350 349 347 347 348 352 353 352 350 348 346 341 343 346
330 330 328 327 327 328 328 331 336 336 351 345 337 350 353 355 356 355 357 354 350 353 353 351 348 348 346 347 345 343 342 340
329 332 331 327 326 327 327 328 329 331 346 352 351 353 350 352 354 352 354 355 355 354 353 353 354 351 348 346 344 343 341 344
328 329 330 331 327 327 329 328 330 333 343 345 347 351 349 348 349 349 348 348 352 351 352 355 353 351 350 349 347 343 344 343
333 330 331 331 331 327 327 328 329 335 347 342 342 345 348 346 345 346 346 346 343 345 348 350 351 352 349 349 350 345 343 344
337 334 332 331 332 331 328 328 329 345 344 337 335 335 348 347 346 347 345 343 342 343 343 345 345 351 351 351 348 348 346 346
337 333 335 333 331 331 335 330 339 339 340 340 342 347 346 346 346 344 342 341 339 339 342 344 344 344 348 349 349 348 348 348
336 334 333 332 332 331 334 336 334 337 338 342 343 343 344 345 344 342 340 340 338 336 340 341 343 344 345 346 346 347 345 345
333 336 335 333 329 328 330 337 332 333 337 339 339 342 345 341 341 341 338 337 336 336 338 339 340 341 342 343 343 343 344 344
329 333 332 329 328 326 329 335 331 333 335 339 343 341 340 339 338 338 336 333 331 336 337 338 338 338 339 339 339 339 339 339
332 334 334 327 327 327 332 329 331 333 334 336 336 339 338 337 336 335 333 331 330 334 335 334 335 334 336 335 335 335 335 334
330 335 329 327 329 328 329 329 329 330 331 334 333 335 337 336 335 333 332 331 330 328 326 325 325 324 323 322 322 319 317 319
328 330 326 325 325 325 326 326 325 327 329 330 331 333 334 335 334 332 331 330 328 326 324 323 322 318 314 312 311 311 310 311
325 326 325 324 323 324 323 322 322 324 327 328 330 331 333 333 333 331 330 329 328 327 326 320 314 312 313 313 312 310 309 309
324 325 327 324 324 323 323 322 321 322 324 327 328 329 330 331 331 330 329 329 328 326 325 324 323 320 317 313 312 313 312 313
324 324 324 323 324 324 322 322 323 322 323 323 326 327 327 328 329 329 329 328 327 327 326 324 323 321 316 313 311 310 315 315

GFSFLT2_850_thetae_105.txt.gz
Theta_e
326 326 327 331 336 335 341 343 349 351 347 344 345 345 345 344 343 343 345 345 346 345 344 346 350 349 345 349 343 340 343 344
328 326 327 327 331 331 338 348 350 352 351 353 343 344 343 342 342 342 343 343 345 347 345 346 351 349 348 349 345 338 344 346
328 326 326 325 327 328 335 336 345 352 350 343 344 342 343 342 342 342 340 341 344 346 346 346 347 349 348 345 347 345 348 349
328 328 326 326 325 324 326 332 336 336 353 346 345 343 342 344 345 343 341 343 343 346 345 346 344 344 343 339 349 349 352 351
327 327 328 325 324 324 322 322 327 335 349 341 343 343 343 347 346 344 342 342 342 345 346 345 344 343 344 342 343 347 348 347
327 328 327 330 326 324 324 322 324 326 347 344 339 335 351 353 353 354 345 344 345 345 344 341 344 345 344 348 347 348 346 343
327 329 328 329 329 326 323 324 328 344 347 344 344 348 348 348 350 350 350 349 347 346 345 344 345 349 350 349 348 346 343 343
332 333 333 333 330 332 329 325 341 348 346 340 343 346 346 345 345 347 348 350 351 350 350 351 351 350 349 348 347 345 345 343
335 331 333 335 331 332 335 335 335 343 342 336 336 336 338 344 344 346 346 344 344 346 350 351 352 350 350 350 348 345 344 343
333 332 336 332 329 330 334 334 333 337 336 333 333 332 333 345 346 346 344 342 342 342 345 348 349 351 352 349 349 348 347 346
332 332 333 333 332 330 330 333 333 335 341 342 337 345 347 346 344 343 341 340 339 339 341 342 344 344 347 350 351 349 347 346
328 332 336 333 330 328 328 336 330 335 338 341 344 345 344 342 341 340 340 339 338 336 339 340 341 343 342 346 347 346 347 346
331 334 332 330 329 327 335 336 330 334 328 332 330 340 340 340 339 339 338 336 336 337 338 338 339 339 342 343 343 342 343 343
325 327 332 328 328 327 330 330 331 337 335 339 335 339 339 337 336 335 334 332 336 337 337 337 337 338 339 339 339 339 339 339
329 328 323 328 329 329 329 327 327 329 335 338 337 337 336 335 334 332 331 330 333 333 334 335 336 335 336 336 336 335 334 333
330 328 329 328 325 325 325 324 324 326 328 332 336 336 335 333 332 331 330 329 328 327 326 324 323 322 323 323 321 318 315 315
330 329 325 324 324 324 323 321 321 324 327 329 332 335 334 333 332 331 330 328 328 326 323 322 319 315 312 311 312 311 311 311
327 327 326 324 324 323 322 321 322 322 325 326 328 332 332 332 331 330 329 329 328 327 325 320 314 312 313 313 311 311 309 309
327 325 324 323 324 323 322 322 322 323 323 324 326 329 329 331 328 329 327 328 328 327 326 325 322 318 317 314 312 313 315 316

GFSFLT2_850_thetae_108.txt.gz
Theta_e
323 333 339 340 337 333 340 341 348 349 348 345 342 345 343 342 342 342 343 346 344 345 345 346 346 346 343 343 345 341 340 342
325 324 332 334 332 333 332 345 350 347 346 348 341 343 344 345 342 343 342 345 345 344 344 346 347 345 345 345 346 343 342 342
325 325 322 322 326 325 329 336 346 351 349 339 339 339 343 343 343 343 342 343 345 345 345 344 347 346 346 347 348 345 341 341
325 323 322 321 322 321 323 327 334 339 347 341 339 338 341 342 342 342 341 342 343 346 346 344 347 347 340 346 348 347 342 344
325 324 324 324 324 321 317 318 329 336 345 339 341 339 339 341 342 342 341 342 343 345 346 346 345 339 340 347 346 345 344 346
325 324 324 326 326 325 318 319 320 325 340 343 336 346 347 342 342 344 343 341 342 342 344 346 345 343 343 347 343 343 343 346
324 331 331 331 331 332 329 323 323 326 341 342 339 347 348 349 348 346 343 342 342 342 342 345 345 344 344 343 343 344 342 346
332 329 330 333 332 335 336 335 347 346 347 342 346 346 347 349 349 348 349 344 342 343 345 345 345 343 340 345 345 345 345 346
332 328 331 334 331 333 335 334 335 344 341 338 340 344 344 346 348 348 348 347 345 345 345 345 345 343 341 343 347 346 347 344
327 326 334 330 329 329 332 332 336 340 338 335 332 339 344 345 346 347 348 347 347 347 347 346 345 343 344 344 348 348 346 346
326 328 330 331 329 330 329 331 334 339 339 340 340 343 342 344 345 345 343 343 343 343 346 347 347 348 347 348 348 348 346 345
324 329 331 329 329 328 328 332 332 334 334 337 342 343 340 341 341 340 339 338 337 338 340 340 343 348 349 349 348 348 348 347
326 328 327 326 325 327 334 331 333 332 333 337 337 337 337 338 338 338 337 336 336 337 337 338 341 342 343 345 345 346 347 345
321 325 327 326 327 328 328 333 332 331 328 334 332 329 329 336 336 334 332 334 335 337 337 336 338 339 342 341 342 342 342 341
327 323 321 326 327 329 329 334 331 337 329 327 329 329 332 335 333 331 331 334 332 333 334 335 336 337 338 338 338 338 338 338
323 325 326 326 323 323 322 325 329 330 331 335 336 336 334 333 332 332 330 329 331 332 332 330 331 332 332 333 333 332 331 328
323 325 327 324 324 324 321 322 325 327 333 334 335 334 333 331 330 329 329 329 327 325 325 324 322 319 317 314 313 312 312 312
323 325 322 323 323 323 322 321 322 325 327 333 333 332 332 331 330 330 328 328 328 326 325 317 314 312 312 312 312 311 310 310
327 325 324 323 323 322 321 321 322 322 324 327 331 331 330 331 330 326 327 325 325 325 325 325 322 315 314 314 313 313 313 314

GFSFLT2_850_thetae_114.txt.gz
Theta_e
335 336 336 338 337 330 335 336 341 344 344 341 340 342 343 344 344 344 344 343 342 342 342 343 343 343 341 343 342 341 342 343
321 336 336 334 333 336 332 340 345 342 344 344 343 341 345 344 343 343 344 344 343 342 342 342 343 343 342 340 339 340 340 343
321 327 335 325 332 327 328 333 339 341 339 337 340 340 344 344 344 344 343 344 344 343 342 343 343 343 343 342 341 340 340 342
323 320 320 322 328 324 328 327 333 333 336 338 336 336 341 341 342 343 343 343 345 344 344 343 343 344 344 343 343 341 342 344
324 324 325 323 328 319 314 317 331 332 330 339 336 338 341 342 341 341 342 343 344 342 344 343 344 344 345 344 344 343 344 346
324 325 325 331 331 332 313 316 318 326 321 339 340 339 340 341 341 342 343 344 345 344 344 342 343 344 345 345 345 345 345 346
321 327 330 331 331 333 331 331 319 328 337 343 342 344 339 341 342 342 343 344 345 345 344 343 344 344 345 346 345 345 345 345
329 327 329 330 330 333 334 338 336 336 342 342 342 345 345 341 341 342 343 342 344 344 344 344 345 345 345 344 344 341 341 345
326 326 327 330 329 331 332 335 336 340 336 337 339 340 342 345 341 341 343 343 343 343 343 341 343 344 344 344 343 342 345 345
326 325 330 327 327 327 329 331 334 338 337 340 339 338 339 341 343 342 342 342 343 343 343 343 343 342 343 342 343 343 342 343
325 325 325 331 330 328 327 329 331 337 337 341 340 338 337 338 340 341 342 343 342 342 343 344 343 343 342 342 344 344 343 342
321 326 329 326 328 327 326 331 331 335 339 341 338 340 340 337 337 336 336 337 339 340 341 343 344 342 338 339 343 339 340 342
322 324 323 321 326 327 332 328 332 337 339 338 335 336 338 336 333 333 335 336 336 337 339 340 342 342 342 342 343 341 338 339
318 322 322 322 325 328 325 330 334 337 337 336 336 337 336 332 331 333 335 336 336 336 337 337 339 342 343 343 342 344 343 341
319 319 319 322 324 326 330 332 332 335 335 334 333 333 330 330 333 334 334 334 334 335 336 337 337 338 339 338 336 338 339 340
320 322 323 324 328 332 333 331 331 331 330 331 330 330 329 329 329 332 332 332 333 332 333 333 334 335 336 336 336 336 337 336
319 322 324 324 326 329 330 332 331 331 329 328 329 331 330 328 327 326 325 324 325 326 326 326 328 328 329 329 329 330 330 328
320 324 322 323 326 326 325 330 330 329 328 330 333 330 330 328 326 325 324 323 323 321 316 313 313 312 312 312 311 311 311 311
322 325 322 323 325 326 324 325 331 331 332 332 332 330 329 327 326 325 325 324 324 323 323 321 315 314 314 313 313 313 314 314

GFSFLT2_850_thetae_117.txt.gz
Theta_e
338 338 337 340 340 334 341 343 347 348 346 342 342 342 343 341 343 346 342 342 343 345 343 341 341 342 342 341 341 341 341 341
328 338 337 339 336 340 343 340 340 344 347 347 346 345 343 343 344 345 343 342 343 345 344 341 342 342 342 341 341 341 342 341
323 333 334 337 338 337 339 342 339 341 338 340 343 344 345 344 344 345 344 342 342 342 342 341 341 342 342 342 341 342 342 341
327 324 323 333 335 336 337 337 341 342 336 342 340 340 344 345 344 344 344 343 342 342 341 342 342 342 342 342 341 341 340 340
327 327 327 330 334 328 325 330 337 336 333 340 340 340 343 345 345 344 344 343 343 343 342 342 342 342 342 343 343 341 341 340
326 329 329 336 335 336 329 329 332 332 332 334 344 346 342 343 343 344 344 344 343 343 343 343 342 342 342 343 343 343 342 342
325 330 331 332 333 337 333 337 326 330 341 345 345 346 345 342 343 343 343 344 345 344 345 343 342 344 343 344 344 344 343 343
330 329 328 332 330 335 338 340 341 341 343 341 342 345 344 342 343 343 344 345 346 344 344 343 343 342 342 343 344 344 345 345
328 328 328 331 330 330 335 337 339 343 342 339 342 343 344 343 343 344 344 345 346 345 344 344 343 342 343 343 344 344 344 344
329 329 330 329 329 330 332 333 337 340 339 340 339 338 340 342 342 343 342 343 343 344 344 344 343 341 340 343 344 343 343 343
330 331 328 331 330 330 330 331 334 339 339 340 338 337 337 340 341 341 341 340 342 342 342 343 343 343 342 341 342 342 342 342
328 329 329 330 328 328 328 333 331 338 339 340 339 341 338 337 337 339 340 340 341 341 341 341 342 342 342 342 340 341 343 343
330 331 328 325 326 328 333 332 334 338 338 341 341 340 334 333 333 334 336 337 338 339 340 342 342 342 342 342 339 342 341 340
328 331 329 324 326 332 329 331 335 338 337 337 334 334 332 332 333 334 335 336 337 337 338 339 340 341 340 341 341 342 340 339
329 329 325 324 326 326 326 334 335 336 334 333 333 332 331 332 332 333 334 334 336 337 337 336 337 337 337 337 338 339 338 338
327 327 326 326 326 327 330 333 334 335 334 332 332 331 331 330 330 332 332 332 333 333 333 333 334 335 336 336 336 336 336 336
328 326 327 327 327 328 331 331 332 332 331 332 331 330 330 329 328 328 328 327 326 327 328 326 325 326 324 323 324 328 329 330
324 328 329 328 326 328 330 332 330 329 331 331 328 327 326 324 323 322 320 317 314 314 313 311 311 311 311 311 310 310 310 310
326 323 324 325 324 323 323 330 329 329 330 332 329 326 325 324 324 323 323 322 322 318 314 314 314 313 313 314 314 314 315 314

GFSFLT2_850_thetae_120.txt.gz
Theta_e
332 332 333 333 337 331 332 333 336 336 342 343 343 342 342 342 341 341 342 344 345 344 347 348 348 348 349 349 348 348 348 349
330 336 336 338 337 336 333 336 337 335 340 341 342 344 344 344 342 342 343 344 346 345 347 348 349 348 349 349 348 348 348 348
328 333 331 337 339 337 336 337 336 339 339 339 341 344 346 344 344 343 346 345 345 345 347 349 349 348 349 349 348 348 349 349
328 328 328 328 334 334 336 335 338 337 343 341 342 343 343 344 343 344 346 345 344 346 348 348 349 349 350 350 349 349 349 350
327 328 329 330 333 334 333 335 338 337 338 339 343 342 344 345 347 345 346 347 344 345 349 348 347 349 349 350 350 350 350 350
325 327 330 335 335 336 335 334 332 333 335 333 345 347 345 345 347 346 345 345 343 343 343 342 342 343 350 350 351 351 351 350
324 324 329 332 333 335 336 334 335 331 334 337 345 345 348 346 346 346 346 347 346 342 341 342 342 342 348 351 352 351 349 351
326 325 328 330 330 331 335 337 338 339 338 344 343 344 349 346 346 345 346 346 348 347 341 343 342 342 342 350 349 344 343 343
329 326 328 329 328 330 331 333 335 337 340 341 345 344 344 347 347 347 347 348 347 348 347 346 343 343 342 344 346 343 344 344
329 329 334 327 329 329 330 331 332 333 338 342 341 340 339 344 345 344 346 348 348 348 346 344 345 344 343 342 342 343 344 345
330 330 327 327 329 331 332 330 329 331 340 341 339 341 337 336 337 339 340 341 343 342 344 344 343 343 343 342 341 342 343 343
327 331 330 332 331 329 329 333 330 332 341 342 342 347 340 334 335 334 338 339 339 340 342 342 342 343 342 340 340 340 339 339
328 331 328 328 329 329 334 336 336 339 342 342 343 339 333 333 333 334 336 337 338 339 341 341 340 343 344 344 342 342 340 341
329 331 331 327 329 333 333 335 338 341 342 335 336 335 334 333 333 335 336 336 336 338 339 339 340 341 343 344 343 341 340 341
329 331 331 329 329 330 330 336 339 339 339 338 335 334 334 333 333 332 332 335 336 336 336 336 336 337 340 341 340 342 342 341
331 331 330 330 330 330 334 337 339 336 337 334 333 331 330 333 333 333 332 331 333 334 335 334 335 335 335 336 337 337 338 337
327 329 330 331 333 334 335 338 337 335 333 332 332 333 334 335 334 333 329 328 329 327 325 325 326 326 326 328 330 333 333 333
327 326 332 331 331 334 336 335 335 335 333 331 331 331 330 329 327 325 323 323 322 319 316 312 311 311 311 311 311 312 314 313
326 327 330 328 329 330 333 334 333 334 332 331 329 328 327 327 327 325 325 321 319 318 315 314 314 314 314 315 316 315 315 314

GFSFLT2_850_thetae_123.txt.gz
Theta_e
329 328 328 332 333 331 333 333 334 342 341 340 341 338 342 343 345 345 346 346 347 344 344 348 348 349 350 351 351 350 351 350
328 329 332 332 338 336 332 335 338 336 337 343 341 337 340 344 345 346 346 347 347 345 344 346 347 350 350 351 351 350 349 349
329 331 332 333 333 335 337 339 340 340 344 341 339 340 345 344 342 343 343 343 346 347 345 346 349 349 351 352 351 350 349 349
330 330 330 333 336 336 335 338 338 338 343 339 339 336 343 343 342 343 344 345 345 346 347 346 350 350 351 352 351 350 349 349
328 327 330 329 329 329 335 336 340 341 341 338 341 335 338 344 349 345 346 346 346 347 347 347 350 351 350 352 352 351 349 349
323 325 328 331 332 334 335 335 336 337 336 338 337 342 338 340 347 346 346 347 346 344 348 349 350 352 351 352 352 352 351 349
324 323 324 325 333 332 332 337 333 334 336 338 334 340 346 345 347 348 341 346 343 341 341 349 352 352 352 353 353 353 353 353
327 326 325 324 328 332 333 333 335 335 335 342 345 348 350 346 347 347 347 347 348 346 344 343 346 348 346 351 353 353 352 354
330 327 328 329 327 328 331 330 334 336 336 343 346 346 345 348 349 346 347 348 348 349 346 343 341 342 345 343 343 349 350 352
327 327 330 329 327 328 330 329 329 332 334 343 345 341 338 341 342 344 346 348 346 346 346 346 341 342 342 343 344 347 347 349
330 331 331 328 329 330 332 330 329 331 333 343 343 340 335 335 337 338 338 338 341 344 346 345 345 344 344 343 343 343 348 347
328 331 334 331 326 324 327 332 331 331 331 337 343 347 339 334 335 336 336 338 339 340 344 344 343 342 342 343 342 341 342 341
329 329 331 330 330 329 334 336 334 333 332 342 344 340 336 334 334 334 337 336 337 339 340 343 342 343 341 337 338 339 340 338
331 333 334 329 330 330 335 334 336 342 342 341 339 337 336 335 334 333 335 334 336 337 338 339 341 344 344 343 342 341 340 340
331 333 332 331 329 332 332 334 337 341 342 340 337 337 336 336 336 332 335 335 334 335 335 337 338 337 341 343 342 343 342 340
331 332 330 330 331 330 333 338 341 341 340 337 338 337 336 336 335 334 332 331 331 333 333 333 333 335 337 337 338 339 339 338
328 327 329 331 333 335 337 337 338 339 337 336 336 335 335 335 334 332 332 330 329 328 330 327 327 330 331 333 335 335 335 335
329 328 334 333 334 336 337 336 335 335 335 335 335 334 334 332 330 330 331 328 325 322 318 317 315 314 316 319 317 318 318 317
328 327 332 332 334 336 335 335 334 334 333 332 330 329 328 328 326 323 323 322 322 322 322 322 322 323 324 322 319 316 315 317

GFSFLT2_850_thetae_126.txt.gz
Theta_e
327 327 326 329 332 330 331 333 334 337 344 345 340 338 336 343 348 348 348 348 346 345 346 344 348 348 347 349 349 347 347 347
329 329 329 328 333 337 333 337 336 335 345 348 342 342 345 344 345 348 349 348 348 345 344 347 347 348 347 349 349 348 350 348
329 330 331 332 331 334 334 338 340 341 348 341 340 340 347 345 344 346 346 348 349 348 344 349 348 350 350 350 350 349 349 351
331 331 331 330 332 335 335 336 337 340 341 339 340 338 345 338 340 346 345 346 347 348 343 346 350 350 350 349 351 351 349 351
326 328 330 330 330 331 333 334 338 344 343 338 338 338 338 345 344 339 340 338 342 348 344 347 348 350 351 351 352 352 349 348
325 326 325 329 331 332 333 335 336 338 338 339 340 337 338 341 345 341 343 342 346 350 349 346 344 347 353 351 352 352 350 349
324 325 325 324 325 326 333 332 334 336 337 337 338 337 342 344 349 346 345 345 346 349 345 349 348 347 354 351 353 351 351 349
327 326 325 325 326 325 329 331 331 332 337 341 335 331 336 345 348 348 346 347 342 341 342 344 347 347 351 353 354 352 351 350
330 328 329 329 328 330 332 332 331 333 334 341 331 329 329 344 344 345 341 343 346 345 340 341 340 341 340 340 352 352 353 351
329 327 327 328 330 330 330 330 329 330 333 341 337 339 337 338 340 341 342 335 340 345 345 345 345 343 342 345 348 351 349 348
328 329 329 329 331 330 330 331 331 332 332 335 335 336 336 337 337 338 340 335 334 336 342 342 341 342 342 343 343 343 344 345
327 329 330 332 330 328 329 330 327 334 333 334 330 342 340 337 335 336 339 338 331 332 336 342 344 344 342 342 343 345 344 346
328 328 328 332 329 330 336 338 330 328 330 328 339 342 336 333 334 335 337 338 337 335 336 338 342 342 338 335 341 342 344 341
332 335 335 332 331 334 336 335 327 325 328 325 338 336 336 335 333 334 336 335 336 339 337 338 341 341 340 335 338 339 338 337
334 335 333 332 332 330 330 331 334 328 326 335 338 337 336 336 333 333 334 334 333 335 337 338 339 340 342 339 337 340 339 337
333 330 331 331 330 331 331 332 326 335 338 339 338 337 336 335 334 333 333 333 333 335 333 333 335 336 338 339 339 339 340 338
330 329 332 333 333 332 336 337 339 339 338 337 337 336 335 335 334 332 331 330 332 333 330 328 328 332 334 335 336 335 336 336
332 332 330 329 327 334 337 334 326 337 336 336 336 336 334 333 333 332 329 324 325 322 320 317 322 320 318 319 321 327 333 334
329 334 332 332 332 334 336 335 335 335 335 334 334 333 330 329 329 326 323 323 322 321 320 324 324 321 318 317 315 316 317 319